FW4770 Weather Reports


time (UTC)temp
C
wind
direction
speed
KPH
gust
KPH
rain 1hr
cm
rain 24hr
cm
rain mn
cm
humidity
%
barometer
mb
20260902203909 29 355 3.2 14.5 0.00 0.03 0.03 59 1012.4
20260902203812 29 306 3.2 14.5 0.00 0.03 0.03 58 1012.4
20260902203716 29 259 3.2 14.5 0.00 0.03 0.03 57 1012.5
20260902203600 29 259 4.8 14.5 0.00 0.03 0.03 59 1012.5
20260902203509 29 261 8.0 14.5 0.00 0.03 0.03 57 1012.5
20260902203414 29 259 8.0 14.5 0.00 0.03 0.03 58 1012.5
20260902203259 29 246 8.0 14.5 0.00 0.03 0.03 59 1012.5
20260902203222 29 232 11.3 14.5 0.00 0.03 0.03 57 1012.5
20260902203125 29 211 12.9 14.5 0.00 0.03 0.03 57 1012.5
20260902203008 29 219 11.3 14.5 0.00 0.03 0.03 58 1012.5
20260902202857 29 194 4.8 14.5 0.00 0.03 0.03 60 1012.5
20260902202800 29 173 1.6 11.3 0.00 0.03 0.03 59 1012.5
20260902202704 29 173 1.6 12.9 0.00 0.03 0.03 59 1012.5
20260902202609 29 174 4.8 12.9 0.00 0.03 0.03 58 1012.5
20260902202512 29 174 6.4 12.9 0.00 0.03 0.03 58 1012.6
20260902202419 29 174 4.8 12.9 0.00 0.03 0.03 60 1012.6
20260902202256 29 130 4.8 12.9 0.00 0.03 0.03 58 1012.5
20260902202205 29 142 6.4 12.9 0.00 0.03 0.03 58 1012.5
20260902202110 29 150 8.0 12.9 0.00 0.03 0.03 58 1012.5
20260902202014 29 180 9.7 12.9 0.00 0.03 0.03 57 1012.6
20260902201919 29 169 8.0 12.9 0.00 0.03 0.03 58 1012.6
20260902201803 29 191 4.8 14.5 0.00 0.03 0.03 56 1012.6
20260902201728 29 211 4.8 14.5 0.00 0.03 0.03 57 1012.6
20260902201556 29 212 8.0 14.5 0.00 0.03 0.03 56 1012.6
20260902201501 29 219 8.0 14.5 0.00 0.03 0.03 58 1012.5
20260902201405 29 236 4.8 14.5 0.00 0.03 0.03 58 1012.5
20260902201309 29 180 4.8 14.5 0.00 0.03 0.03 57 1012.5
20260902201214 29 217 6.4 17.7 0.00 0.03 0.03 56 1012.5
20260902201059 29 217 9.7 19.3 0.00 0.03 0.03 57 1012.5
20260902201008 29 219 8.0 19.3 0.00 0.03 0.03 58 1012.5
20260902200913 29 142 6.4 19.3 0.00 0.03 0.03 56 1012.6
20260902200818 29 142 8.0 19.3 0.00 0.03 0.03 57 1012.6
20260902200702 29 169 9.7 19.3 0.00 0.03 0.03 57 1012.6
20260902200607 29 175 11.3 19.3 0.00 0.03 0.03 57 1012.6
20260902200511 29 209 12.9 19.3 0.00 0.03 0.03 57 1012.6
20260902200400 29 196 11.3 19.3 0.00 0.03 0.03 58 1012.6
20260902200304 29 209 8.0 19.3 0.00 0.03 0.03 58 1012.7
20260902200209 29 188 8.0 12.9 0.00 0.03 0.03 57 1012.7
20260902200114 29 213 8.0 12.9 0.00 0.03 0.03 57 1012.7
20260902200019 29 212 8.0 14.5 0.00 0.03 0.03 58 1012.7
20260902195856 29 182 1.6 14.5 0.00 0.03 0.03 59 1012.6
20260902195806 29 97 1.6 14.5 0.00 0.03 0.03 61 1012.7
20260902195710 28 97 1.6 14.5 0.00 0.03 0.03 59 1012.7
20260902195614 28 97 3.2 14.5 0.00 0.03 0.03 58 1012.7
20260902195459 28 97 3.2 14.5 0.00 0.03 0.03 58 1012.8
20260902195404 28 200 6.4 14.5 0.00 0.03 0.03 57 1012.8
20260902195309 28 200 11.3 14.5 0.00 0.03 0.03 56 1012.8
20260902195158 29 207 11.3 14.5 0.00 0.03 0.03 57 1012.8
20260902195102 29 233 11.3 14.5 0.00 0.03 0.03 57 1012.8
20260902195006 29 203 9.7 12.9 0.00 0.03 0.03 58 1012.7
20260902194910 29 171 6.4 12.9 0.00 0.03 0.03 59 1012.7
20260902194755 28 167 4.8 12.9 0.00 0.03 0.03 58 1012.7
20260902194700 28 190 4.8 12.9 0.00 0.03 0.03 58 1012.8
20260902194625 28 190 8.0 12.9 0.00 0.03 0.03 58 1012.8
20260902194512 28 186 8.0 14.5 0.00 0.03 0.03 58 1012.8
20260902194417 28 159 4.8 14.5 0.00 0.03 0.03 61 1012.8
20260902194300 28 123 6.4 14.5 0.00 0.03 0.03 59 1012.8
20260902194205 28 117 8.0 14.5 0.00 0.03 0.03 59 1012.8
20260902194110 28 137 9.7 14.5 0.00 0.03 0.03 60 1012.8
20260902193955 28 176 8.0 14.5 0.00 0.03 0.03 59 1012.9
20260902193904 28 237 8.0 14.5 0.00 0.03 0.03 59 1012.9
20260902193809 29 227 9.7 14.5 0.00 0.03 0.03 60 1012.9
20260902193733 28 216 9.7 14.5 0.00 0.03 0.03 60 1013.0
20260902193616 28 211 8.0 12.9 0.00 0.03 0.03 60 1013.0
20260902193459 28 218 4.8 12.9 0.00 0.03 0.03 59 1013.0
20260902193403 28 93 4.8 12.9 0.00 0.03 0.03 59 1013.0
20260902193308 28 92 6.4 14.5 0.00 0.03 0.03 58 1013.0
20260902193216 28 91 4.8 14.5 0.00 0.03 0.03 63 1013.0
20260902193120 28 105 4.8 14.5 0.00 0.03 0.03 63 1013.0
20260902192958 28 108 6.4 14.5 0.00 0.03 0.03 61 1013.1
20260902192903 28 165 8.0 14.5 0.00 0.03 0.03 59 1013.0
20260902192828 28 166 8.0 14.5 0.00 0.03 0.03 59 1013.0
20260902192711 28 128 8.0 14.5 0.00 0.03 0.03 60 1013.0
20260902192614 28 161 8.0 14.5 0.00 0.03 0.03 60 1013.1
20260902192503 28 139 6.4 14.5 0.00 0.03 0.03 62 1013.1
20260902192408 28 115 6.4 14.5 0.00 0.03 0.03 61 1013.1
20260902192313 28 131 9.7 14.5 0.00 0.03 0.03 62 1013.0
20260902192239 28 110 11.3 14.5 0.00 0.03 0.03 62 1013.1
20260902192055 28 106 9.7 12.9 0.00 0.03 0.03 61 1013.1
20260902192000 28 101 8.0 12.9 0.00 0.03 0.03 60 1013.1
20260902191909 28 112 8.0 12.9 0.00 0.03 0.03 61 1013.1
20260902191813 28 155 6.4 12.9 0.00 0.03 0.03 63 1013.1
20260902191718 28 131 4.8 12.9 0.00 0.03 0.03 63 1013.1
20260902191556 28 124 3.2 12.9 0.00 0.03 0.03 63 1013.2
20260902191501 28 171 3.2 12.9 0.00 0.03 0.03 63 1013.1
20260902191426 28 171 4.8 12.9 0.00 0.03 0.03 64 1013.1
20260902191309 28 192 4.8 12.9 0.00 0.03 0.03 62 1013.1
20260902191158 28 192 6.4 12.9 0.00 0.03 0.03 62 1013.1
20260902191103 28 186 9.7 12.9 0.00 0.03 0.03 62 1013.1
20260902191007 28 196 9.7 12.9 0.00 0.03 0.03 63 1013.1
20260902190912 28 209 6.4 14.5 0.00 0.03 0.03 64 1013.1
20260902190757 28 184 1.6 14.5 0.00 0.03 0.03 64 1013.1
20260902190706 28 184 0.0 14.5 0.00 0.03 0.03 63 1013.1
20260902190610 28 184 1.6 14.5 0.00 0.03 0.03 63 1013.1
20260902190535 28 184 3.2 14.5 0.00 0.03 0.03 62 1013.1
20260902190418 28 184 6.4 14.5 0.00 0.03 0.03 62 1013.3
20260902190302 28 180 8.0 14.5 0.00 0.03 0.03 62 1013.3
20260902190207 28 168 9.7 14.5 0.00 0.03 0.03 62 1013.2
20260902190111 28 221 9.7 14.5 0.00 0.03 0.03 62 1013.2
20260902190000 28 208 8.0 16.1 0.00 0.03 0.03 61 1013.3
20260902185902 28 180 8.0 16.1 0.00 0.03 0.03 63 1013.3
20260902185807 28 176 8.0 16.1 0.00 0.03 0.03 61 1013.3
20260902185731 28 214 6.4 16.1 0.00 0.03 0.03 62 1013.3
20260902185555 28 192 8.0 16.1 0.00 0.03 0.03 62 1013.3
20260902185520 28 188 9.7 16.1 0.00 0.03 0.03 62 1013.3
20260902185358 28 189 8.0 16.1 0.00 0.03 0.03 62 1013.3
20260902185307 28 191 6.4 16.1 0.00 0.03 0.03 63 1013.3
20260902185212 28 192 4.8 16.1 0.00 0.03 0.03 62 1013.3
20260902185137 28 192 4.8 16.1 0.00 0.03 0.03 61 1013.3
20260902185041 28 190 8.0 16.1 0.00 0.03 0.03 62 1013.3
20260902184858 28 197 8.0 16.1 0.00 0.03 0.03 63 1013.3
20260902184803 28 177 8.0 12.9 0.00 0.03 0.03 61 1013.3
20260902184706 28 178 8.0 12.9 0.00 0.03 0.03 62 1013.3
20260902184555 28 188 6.4 12.9 0.00 0.03 0.03 63 1013.4
20260902184520 27 187 8.0 16.1 0.00 0.03 0.03 61 1013.4
20260902184423 27 174 8.0 16.1 0.00 0.03 0.03 62 1013.4
20260902184307 27 171 8.0 16.1 0.00 0.03 0.03 61 1013.4
20260902184212 27 182 8.0 16.1 0.00 0.03 0.03 61 1013.4
20260902184117 27 127 9.7 16.1 0.00 0.03 0.03 62 1013.5
20260902184001 27 169 9.7 16.1 0.00 0.03 0.03 61 1013.5
20260902183910 28 187 11.3 16.1 0.00 0.03 0.03 61 1013.5
20260902183755 28 201 9.7 16.1 0.00 0.03 0.03 62 1013.5
20260902183659 28 181 8.0 16.1 0.00 0.03 0.03 63 1013.5
20260902183604 27 172 9.7 16.1 0.00 0.03 0.03 62 1013.6
20260902183529 27 199 11.3 16.1 0.00 0.03 0.03 62 1013.6
20260902183413 27 191 9.7 16.1 0.00 0.03 0.03 62 1013.5
20260902183302 27 193 6.4 16.1 0.00 0.03 0.03 63 1013.7
20260902183207 27 193 3.2 14.5 0.00 0.03 0.03 62 1013.7
20260902183112 27 192 3.2 14.5 0.00 0.03 0.03 61 1013.6
20260902182957 27 190 8.0 14.5 0.00 0.03 0.03 63 1013.7
20260902182922 27 190 8.0 14.5 0.00 0.03 0.03 63 1013.7
20260902182806 27 190 6.4 11.3 0.00 0.03 0.03 64 1013.8
20260902182731 27 227 4.8 12.9 0.00 0.03 0.03 63 1013.8
20260902182619 27 194 3.2 14.5 0.00 0.03 0.03 65 1013.7
20260902182456 27 113 4.8 14.5 0.00 0.03 0.03 63 1013.7
20260902182401 27 200 8.0 14.5 0.00 0.03 0.03 64 1013.7
20260902182326 27 238 9.7 14.5 0.00 0.03 0.03 63 1013.7
20260902182230 27 201 9.7 14.5 0.00 0.03 0.03 64 1013.7
20260902182114 27 286 8.0 14.5 0.00 0.03 0.03 64 1013.7
20260902182003 27 277 9.7 14.5 0.00 0.03 0.03 62 1013.8
20260902181906 27 243 9.7 14.5 0.00 0.03 0.03 64 1013.7
20260902181831 27 241 8.0 16.1 0.00 0.03 0.03 63 1013.7
20260902181655 27 239 4.8 14.5 0.00 0.03 0.03 63 1013.8
20260902181620 27 198 6.4 14.5 0.00 0.03 0.03 64 1013.8
20260902181458 27 246 8.0 14.5 0.00 0.03 0.03 63 1013.8
20260902181402 27 252 9.7 14.5 0.00 0.03 0.03 63 1013.8
20260902181331 27 276 9.7 14.5 0.00 0.03 0.03 63 1013.8
20260902181155 27 250 8.0 16.1 0.00 0.03 0.03 64 1013.9
20260902181100 27 245 9.7 16.1 0.00 0.03 0.03 65 1013.9
20260902181025 27 232 9.7 16.1 0.00 0.03 0.03 65 1013.8
20260902180929 27 182 9.7 16.1 0.00 0.03 0.03 64 1013.8
20260902180813 27 144 9.7 16.1 0.00 0.03 0.03 64 1013.9
20260902180657 27 142 8.0 16.1 0.00 0.03 0.03 64 1013.8
20260902180606 27 134 8.0 16.1 0.00 0.03 0.03 64 1013.9
20260902180531 27 192 9.7 16.1 0.00 0.03 0.03 65 1013.9
20260902180435 27 156 11.3 16.1 0.00 0.03 0.03 65 1013.9
20260902180258 27 201 9.7 16.1 0.00 0.03 0.03 65 1013.9
20260902180203 27 196 8.0 16.1 0.00 0.03 0.03 66 1013.9
20260902180108 27 188 6.4 16.1 0.00 0.03 0.03 67 1013.9
20260902175957 27 221 6.4 16.1 0.00 0.03 0.03 66 1014.0
20260902175902 27 220 4.8 16.1 0.00 0.03 0.03 67 1014.0
20260902175806 27 190 4.8 16.1 0.00 0.03 0.03 68 1014.0
20260902175712 27 202 4.8 16.1 0.00 0.03 0.03 67 1014.0
20260902175616 27 225 3.2 16.1 0.00 0.03 0.03 66 1014.1
20260902175500 27 261 4.8 16.1 0.00 0.03 0.03 67 1014.1
20260902175425 27 263 8.0 16.1 0.00 0.03 0.03 66 1014.1
20260902175328 27 281 8.0 14.5 0.00 0.03 0.03 66 1014.1
20260902175156 27 259 9.7 14.5 0.00 0.03 0.03 66 1014.0
20260902175059 27 258 9.7 14.5 0.00 0.03 0.03 66 1014.0
20260902175024 27 267 9.7 14.5 0.00 0.03 0.03 68 1013.9
20260902174907 27 277 9.7 14.5 0.00 0.03 0.03 69 1013.9
20260902174812 27 284 8.0 14.5 0.00 0.03 0.03 69 1014.0
20260902174717 26 273 9.7 14.5 0.00 0.03 0.03 68 1014.1
20260902174605 26 230 9.7 14.5 0.00 0.03 0.03 66 1014.1
20260902174530 27 241 8.0 14.5 0.00 0.03 0.03 69 1014.1
20260902174414 27 236 4.8 14.5 0.00 0.03 0.03 68 1014.0
20260902174259 27 226 6.4 14.5 0.00 0.03 0.03 68 1014.1
20260902174224 27 225 6.4 14.5 0.00 0.03 0.03 68 1014.1
20260902174108 27 224 8.0 14.5 0.00 0.03 0.03 68 1014.1
20260902174013 27 225 8.0 14.5 0.00 0.03 0.03 68 1014.2
20260902173902 27 201 8.0 14.5 0.00 0.03 0.03 69 1014.2
20260902173806 27 219 8.0 14.5 0.00 0.03 0.03 68 1014.2
20260902173731 26 207 8.0 14.5 0.00 0.03 0.03 69 1014.2
20260902173555 26 198 6.4 14.5 0.00 0.03 0.03 69 1014.3
20260902173459 26 196 6.4 12.9 0.00 0.03 0.03 69 1014.3
20260902173405 26 204 6.4 12.9 0.00 0.03 0.03 69 1014.3
20260902173313 26 172 6.4 12.9 0.00 0.03 0.03 68 1014.3
20260902173218 26 223 8.0 12.9 0.00 0.03 0.03 67 1014.5
20260902173102 26 223 11.3 12.9 0.00 0.03 0.03 68 1014.5
20260902173006 26 231 9.7 12.9 0.00 0.03 0.03 68 1014.5
20260902172931 26 242 9.7 14.5 0.00 0.03 0.03 69 1014.5
20260902172755 26 204 8.0 12.9 0.00 0.03 0.03 69 1014.5
20260902172700 26 196 8.0 12.9 0.00 0.03 0.03 69 1014.4
20260902172608 26 196 8.0 12.9 0.00 0.03 0.03 68 1014.4
20260902172513 26 232 9.7 12.9 0.00 0.03 0.03 69 1014.4
20260902172418 26 233 11.3 14.5 0.00 0.03 0.03 69 1014.4
20260902172256 26 215 11.3 12.9 0.00 0.03 0.03 68 1014.4
20260902172200 26 239 9.7 14.5 0.00 0.03 0.03 67 1014.4
20260902172105 26 237 8.0 12.9 0.00 0.03 0.03 68 1014.3
20260902172014 26 221 6.4 12.9 0.00 0.03 0.03 68 1014.3
20260902171859 26 208 6.4 12.9 0.00 0.03 0.03 69 1014.2
20260902171823 26 194 8.0 12.9 0.00 0.03 0.03 68 1014.4
20260902171707 26 194 8.0 12.9 0.00 0.03 0.03 69 1014.4
20260902171631 26 188 6.4 14.5 0.00 0.03 0.03 69 1014.2
20260902171455 26 185 4.8 16.1 0.00 0.03 0.03 71 1014.2
20260902171404 26 280 6.4 16.1 0.00 0.03 0.03 72 1014.3
20260902171327 26 300 4.8 16.1 0.00 0.03 0.03 73 1014.3
20260902171231 26 320 4.8 16.1 0.00 0.03 0.03 71 1014.3
20260902171055 26 308 4.8 16.1 0.00 0.03 0.03 72 1014.3
20260902170959 26 305 8.0 16.1 0.00 0.03 0.03 70 1014.3
20260902170904 26 289 8.0 16.1 0.00 0.03 0.03 69 1014.3
20260902170809 26 259 9.7 16.1 0.00 0.03 0.03 69 1014.3
20260902170717 26 260 9.7 16.1 0.00 0.03 0.03 70 1014.3
20260902170601 26 262 9.7 16.1 0.00 0.03 0.03 71 1014.3
20260902170526 26 223 8.0 14.5 0.00 0.03 0.03 70 1014.3
20260902170410 26 248 8.0 14.5 0.00 0.03 0.03 69 1014.3
20260902170334 26 247 11.3 14.5 0.00 0.03 0.03 69 1014.3
20260902170218 26 247 9.7 14.5 0.00 0.03 0.03 69 1014.2
20260902170005 26 216 6.4 12.9 0.00 0.03 0.03 69 1014.2
20260902165914 26 213 6.4 12.9 0.00 0.03 0.03 69 1014.2
20260902165820 26 215 4.8 12.9 0.00 0.03 0.03 69 1014.3
20260902165703 26 212 4.8 12.9 0.00 0.03 0.03 69 1014.3
20260902165608 26 178 6.4 12.9 0.00 0.03 0.03 69 1014.3
20260902165512 26 165 6.4 12.9 0.00 0.03 0.03 70 1014.4
20260902165357 26 167 8.0 12.9 0.00 0.03 0.03 70 1014.3
20260902165309 26 181 6.4 12.9 0.00 0.03 0.03 68 1014.2
20260902165210 26 189 6.4 16.1 0.00 0.03 0.03 69 1014.2
20260902165134 26 192 6.4 16.1 0.00 0.03 0.03 70 1014.1
20260902164958 26 181 6.4 16.1 0.00 0.03 0.03 68 1014.1
20260902164903 26 182 6.4 16.1 0.00 0.03 0.03 68 1014.2
20260902164807 26 158 6.4 16.1 0.00 0.03 0.03 68 1014.2
20260902164656 26 155 4.8 16.1 0.00 0.03 0.03 68 1014.2
20260902164601 26 163 8.0 16.1 0.00 0.03 0.03 68 1014.3
20260902164505 26 166 9.7 16.1 0.00 0.03 0.03 69 1014.3
20260902164410 26 208 9.7 16.1 0.00 0.03 0.03 70 1014.3
20260902164255 26 239 8.0 14.5 0.00 0.03 0.03 70 1014.4
20260902164200 26 191 8.0 14.5 0.00 0.03 0.03 71 1014.4
20260902164129 26 207 8.0 14.5 0.00 0.03 0.03 70 1014.4
20260902164012 26 177 6.4 14.5 0.00 0.03 0.03 71 1014.4
20260902163857 26 213 6.4 14.5 0.00 0.03 0.03 70 1014.4
20260902163802 26 212 8.0 14.5 0.00 0.03 0.03 71 1014.5
20260902163706 26 211 9.7 14.5 0.00 0.03 0.03 70 1014.5
20260902163611 26 207 9.7 14.5 0.00 0.03 0.03 70 1014.5
20260902163520 26 201 8.0 12.9 0.00 0.03 0.03 73 1014.4
20260902163404 26 166 8.0 12.9 0.00 0.03 0.03 72 1014.4
20260902163309 26 216 8.0 12.9 0.00 0.03 0.03 71 1014.4
20260902163214 26 215 8.0 12.9 0.00 0.03 0.03 71 1014.4
20260902163059 26 184 9.7 12.9 0.00 0.03 0.03 71 1014.5
20260902163004 26 185 8.0 12.9 0.00 0.03 0.03 71 1014.5
20260902162927 26 177 8.0 12.9 0.00 0.03 0.03 71 1014.5
20260902162755 26 209 6.4 12.9 0.00 0.03 0.03 73 1014.6
20260902162659 26 222 3.2 11.3 0.00 0.03 0.03 73 1014.6
20260902162604 26 240 3.2 11.3 0.00 0.03 0.03 72 1014.6
20260902162509 26 240 3.2 11.3 0.00 0.03 0.03 72 1014.6
20260902162414 26 235 3.2 11.3 0.00 0.03 0.03 73 1014.6
20260902162306 25 200 1.6 11.3 0.00 0.03 0.03 73 1014.5
20260902162205 25 200 1.6 11.3 0.00 0.03 0.03 73 1014.5
20260902162110 25 199 3.2 11.3 0.00 0.03 0.03 72 1014.5
20260902162014 25 199 4.8 11.3 0.00 0.03 0.03 72 1014.5
20260902161859 25 200 6.4 11.3 0.00 0.03 0.03 72 1014.4
20260902161824 25 200 6.4 12.9 0.00 0.03 0.03 72 1014.3
20260902161708 25 200 6.4 12.9 0.00 0.03 0.03 73 1014.3
20260902161556 25 219 6.4 12.9 0.00 0.03 0.03 73 1014.2
20260902161501 25 242 4.8 12.9 0.00 0.03 0.03 73 1014.1
20260902161406 25 165 1.6 8.0 0.00 0.03 0.03 74 1014.1
20260902161310 25 165 0.0 8.0 0.00 0.03 0.03 74 1014.1
20260902161215 25 165 1.6 9.7 0.00 0.03 0.03 73 1014.1
20260902161119 25 164 3.2 9.7 0.00 0.03 0.03 73 1014.2
20260902161007 25 164 3.2 9.7 0.00 0.03 0.03 73 1014.2
20260902160932 25 164 3.2 9.7 0.00 0.03 0.03 72 1014.1
20260902160814 25 225 4.8 9.7 0.00 0.03 0.03 72 1014.2
20260902160659 25 225 4.8 9.7 0.00 0.03 0.03 72 1014.1
20260902160624 25 235 4.8 9.7 0.00 0.03 0.03 72 1014.1
20260902160508 25 204 6.4 9.7 0.00 0.03 0.03 72 1014.1
20260902160413 25 204 6.4 12.9 0.00 0.03 0.03 73 1014.1
20260902160302 25 202 6.4 12.9 0.00 0.03 0.03 72 1014.0
20260902160207 25 182 4.8 12.9 0.00 0.03 0.03 73 1014.1
20260902160111 25 169 3.2 12.9 0.00 0.03 0.03 73 1014.1
20260902160016 25 99 3.2 12.9 0.00 0.03 0.03 74 1014.0
20260902155918 25 99 6.4 12.9 0.00 0.03 0.03 74 1014.0
20260902155756 25 98 6.4 12.9 0.00 0.03 0.03 74 1014.0
20260902155701 25 103 6.4 12.9 0.00 0.03 0.03 75 1014.0
20260902155630 25 123 6.4 12.9 0.00 0.03 0.03 76 1014.0
20260902155514 25 51 6.4 12.9 0.00 0.03 0.03 76 1013.9
20260902155358 25 64 6.4 9.7 0.00 0.03 0.03 75 1013.8
20260902155306 25 94 6.4 9.7 0.00 0.03 0.03 75 1013.9
20260902155208 25 65 6.4 11.3 0.00 0.03 0.03 75 1013.9
20260902155113 25 115 4.8 11.3 0.00 0.03 0.03 76 1013.9
20260902155002 25 117 4.8 11.3 0.00 0.03 0.03 76 1013.8
20260902154907 25 107 6.4 11.3 0.00 0.03 0.03 76 1013.8
20260902154831 25 90 8.0 11.3 0.00 0.03 0.03 75 1013.8
20260902154655 25 80 6.4 11.3 0.00 0.03 0.03 76 1013.8
20260902154620 25 91 6.4 11.3 0.00 0.03 0.03 75 1013.8
20260902154504 25 96 4.8 11.3 0.00 0.03 0.03 76 1013.9
20260902154429 25 105 4.8 11.3 0.00 0.03 0.03 76 1013.9
20260902154257 25 122 6.4 11.3 0.00 0.03 0.03 76 1013.8
20260902154201 25 128 6.4 11.3 0.00 0.03 0.03 77 1013.9
20260902154106 25 90 4.8 6.4 0.00 0.03 0.03 77 1013.9
20260902154011 25 85 3.2 6.4 0.00 0.03 0.03 76 1013.9
20260902153856 24 131 3.2 6.4 0.00 0.03 0.03 76 1013.9
20260902153821 24 131 3.2 6.4 0.00 0.03 0.03 76 1013.9
20260902153724 25 131 3.2 6.4 0.00 0.03 0.03 75 1013.9
20260902153628 24 131 3.2 6.4 0.00 0.03 0.03 76 1013.9
20260902153456 24 130 3.2 6.4 0.00 0.03 0.03 76 1013.9
20260902153401 24 129 1.6 6.4 0.00 0.03 0.03 78 1013.8
20260902153327 24 128 1.6 6.4 0.00 0.03 0.03 78 1013.9
20260902153210 24 128 1.6 6.4 0.00 0.03 0.03 77 1013.9
20260902153055 24 128 4.8 6.4 0.00 0.03 0.03 77 1014.0
20260902153019 24 128 4.8 6.4 0.00 0.03 0.03 77 1013.9
20260902152907 24 129 4.8 6.4 0.00 0.03 0.03 79 1013.9
20260902152812 24 129 4.8 6.4 0.00 0.03 0.03 79 1013.9
20260902152657 24 142 3.2 6.4 0.00 0.03 0.03 77 1013.9
20260902152602 24 146 3.2 6.4 0.00 0.03 0.03 77 1013.9
20260902152507 24 171 3.2 6.4 0.00 0.03 0.03 76 1013.9
20260902152412 24 172 3.2 6.4 0.00 0.03 0.03 76 1013.9
20260902152321 24 189 3.2 6.4 0.00 0.03 0.03 76 1013.9
20260902152156 24 189 4.8 6.4 0.00 0.03 0.03 77 1013.9
20260902152100 23 190 4.8 6.4 0.00 0.03 0.03 77 1014.1
20260902152005 23 190 3.2 6.4 0.00 0.03 0.03 77 1014.0
20260902151910 23 217 3.2 6.4 0.00 0.03 0.03 77 1014.0
20260902151835 23 245 1.6 6.4 0.00 0.03 0.03 77 1014.0
20260902151719 23 268 1.6 6.4 0.00 0.03 0.03 77 1014.2
20260902151607 23 268 3.2 6.4 0.00 0.03 0.03 77 1014.2
20260902151512 23 271 3.2 6.4 0.00 0.03 0.03 77 1014.2
20260902151437 23 300 3.2 6.4 0.00 0.03 0.03 78 1014.3
20260902151340 23 300 1.6 6.4 0.00 0.03 0.03 80 1014.3
20260902151157 23 17 3.2 6.4 0.00 0.03 0.03 80 1014.3
20260902151101 23 17 3.2 6.4 0.00 0.03 0.03 80 1014.2
20260902151006 23 17 3.2 6.4 0.00 0.03 0.03 81 1014.2
20260902150855 23 214 1.6 8.0 0.00 0.03 0.03 79 1014.1
20260902150820 23 214 1.6 8.0 0.00 0.03 0.03 79 1014.1
20260902150657 23 214 3.2 8.0 0.00 0.03 0.03 79 1014.1
20260902150602 23 213 1.6 8.0 0.00 0.03 0.03 79 1014.0
20260902150506 23 213 1.6 8.0 0.00 0.03 0.03 78 1014.0
20260902150355 23 228 3.2 8.0 0.00 0.03 0.03 79 1013.8
20260902150321 23 228 4.8 8.0 0.00 0.03 0.03 79 1013.8
20260902150159 23 228 4.8 8.0 0.00 0.03 0.03 78 1013.7
20260902150104 23 228 4.8 8.0 0.00 0.03 0.03 79 1013.7
20260902150009 23 224 4.8 6.4 0.00 0.03 0.03 79 1013.7
20260902145914 23 224 3.2 6.4 0.00 0.03 0.03 80 1013.8
20260902145818 22 225 1.6 6.4 0.00 0.03 0.03 79 1013.8
20260902145705 22 225 1.6 8.0 0.00 0.03 0.03 79 1013.7
20260902145610 22 225 1.6 8.0 0.00 0.03 0.03 80 1013.7
20260902145535 22 225 1.6 8.0 0.00 0.03 0.03 80 1013.8
20260902145419 22 225 3.2 8.0 0.00 0.03 0.03 79 1013.8
20260902145256 22 225 3.2 8.0 0.00 0.03 0.03 80 1013.7
20260902145201 22 225 3.2 8.0 0.00 0.03 0.03 80 1013.8
20260902145110 22 225 4.8 8.0 0.00 0.03 0.03 80 1013.8
20260902145035 22 225 6.4 8.0 0.00 0.03 0.03 80 1013.8
20260902144918 22 225 4.8 8.0 0.00 0.03 0.03 81 1013.8
20260902144802 22 216 4.8 8.0 0.00 0.03 0.03 81 1013.9
20260902144705 22 216 3.2 8.0 0.00 0.03 0.03 81 1013.9
20260902144610 22 216 3.2 8.0 0.00 0.03 0.03 80 1013.9
20260902144514 22 216 4.8 8.0 0.00 0.03 0.03 80 1014.0
20260902144423 22 215 4.8 8.0 0.00 0.03 0.03 81 1013.9
20260902144307 22 215 4.8 8.0 0.00 0.03 0.03 82 1013.9
20260902144232 22 215 3.2 6.4 0.00 0.03 0.03 81 1014.0
20260902144056 22 188 1.6 6.4 0.00 0.03 0.03 81 1014.0
20260902144001 22 187 1.6 6.4 0.00 0.03 0.03 82 1014.1
20260902143905 22 187 1.6 8.0 0.00 0.03 0.03 81 1014.1
20260902143810 22 187 3.2 8.0 0.00 0.03 0.03 81 1014.1
20260902143740 22 187 3.2 8.0 0.00 0.03 0.03 81 1014.1
20260902143557 22 187 3.2 8.0 0.00 0.03 0.03 81 1014.1
20260902143502 22 187 3.2 8.0 0.00 0.03 0.03 82 1014.1
20260902143407 22 180 3.2 8.0 0.00 0.03 0.03 82 1014.1
20260902143312 22 179 3.2 8.0 0.00 0.03 0.03 82 1014.1
20260902143217 22 180 4.8 8.0 0.00 0.03 0.03 82 1014.1
20260902143105 22 180 4.8 8.0 0.00 0.03 0.03 82 1014.1
20260902143030 22 178 4.8 8.0 0.00 0.03 0.03 82 1014.1
20260902142913 22 176 4.8 8.0 0.00 0.03 0.03 82 1014.1
20260902142818 22 176 4.8 8.0 0.00 0.03 0.03 83 1014.1
20260902142655 22 175 3.2 6.4 0.00 0.03 0.03 82 1014.1
20260902142620 22 175 3.2 4.8 0.00 0.03 0.03 82 1014.1
20260902142458 22 173 1.6 4.8 0.00 0.03 0.03 83 1014.1
20260902142403 21 173 1.6 4.8 0.00 0.03 0.03 83 1014.1
20260902142308 21 173 3.2 6.4 0.00 0.03 0.03 83 1014.1
20260902142213 21 173 1.6 6.4 0.00 0.03 0.03 83 1014.2
20260902142058 21 173 1.6 9.7 0.00 0.03 0.03 83 1014.2
20260902142023 21 173 1.6 9.7 0.00 0.03 0.03 83 1014.2
20260902141907 21 173 1.6 9.7 0.00 0.03 0.03 83 1014.2
20260902141755 21 194 1.6 9.7 0.00 0.03 0.03 84 1014.1
20260902141719 21 194 1.6 9.7 0.00 0.03 0.03 83 1014.1
20260902141557 21 194 4.8 9.7 0.00 0.03 0.03 83 1014.2
20260902141522 21 194 4.8 9.7 0.00 0.03 0.03 83 1014.2
20260902141359 21 194 6.4 9.7 0.00 0.03 0.03 83 1014.1
20260902141304 21 194 6.4 9.7 0.00 0.03 0.03 83 1014.1
20260902141209 21 187 6.4 9.7 0.00 0.03 0.03 83 1014.1
20260902141117 21 188 8.0 9.7 0.00 0.03 0.03 84 1014.1
20260902140955 21 198 4.8 8.0 0.00 0.03 0.03 84 1014.1
20260902140919 21 198 3.2 8.0 0.00 0.03 0.03 84 1014.2
20260902140823 21 197 3.2 8.0 0.00 0.03 0.03 83 1014.3
20260902140707 21 197 3.2 8.0 0.00 0.03 0.03 83 1014.3
20260902140612 21 197 4.8 8.0 0.00 0.03 0.03 84 1014.3
20260902140501 21 197 4.8 8.0 0.00 0.03 0.03 84 1014.3
20260902140425 21 197 4.8 8.0 0.00 0.03 0.03 84 1014.3
20260902140309 21 198 3.2 8.0 0.00 0.03 0.03 85 1014.3
20260902140214 21 216 3.2 6.4 0.00 0.03 0.03 85 1014.3
20260902140118 21 216 4.8 6.4 0.00 0.03 0.03 84 1014.3
20260902140002 21 216 4.8 6.4 0.00 0.03 0.03 85 1014.3
20260902135907 21 216 3.2 6.4 0.00 0.03 0.03 85 1014.3
20260902135816 21 216 3.2 4.8 0.00 0.03 0.03 86 1014.4
20260902135741 21 216 1.6 6.4 0.00 0.03 0.03 85 1014.3
20260902135557 21 216 1.6 6.4 0.00 0.03 0.03 85 1014.3
20260902135522 21 216 3.2 6.4 0.00 0.03 0.03 85 1014.4
20260902135406 21 216 3.2 6.4 0.00 0.03 0.03 85 1014.4
20260902135311 21 216 3.2 6.4 0.00 0.03 0.03 85 1014.3
20260902135216 21 216 3.2 6.4 0.00 0.03 0.03 85 1014.3
20260902135119 21 216 3.2 6.4 0.00 0.03 0.03 84 1014.3
20260902135027 21 216 4.8 6.4 0.00 0.03 0.03 84 1014.3
20260902134910 21 216 4.8 8.0 0.00 0.03 0.03 85 1014.3
20260902134834 21 216 4.8 8.0 0.00 0.03 0.03 85 1014.3
20260902134719 21 215 3.2 9.7 0.00 0.03 0.03 85 1014.3
20260902134556 21 213 3.2 9.7 0.00 0.03 0.03 85 1014.2
20260902134501 21 213 3.2 9.7 0.00 0.03 0.03 86 1014.3
20260902134406 21 213 1.6 9.7 0.00 0.03 0.03 86 1014.3
20260902134334 21 213 1.6 9.7 0.00 0.03 0.03 86 1014.3
20260902134217 20 213 3.2 9.7 0.00 0.03 0.03 86 1014.3
20260902134055 20 213 6.4 9.7 0.00 0.03 0.03 86 1014.3
20260902134000 20 194 8.0 9.7 0.00 0.03 0.03 86 1014.3
20260902133925 20 194 6.4 9.7 0.00 0.03 0.03 86 1014.4
20260902133829 20 205 6.4 9.7 0.00 0.03 0.03 86 1014.4
20260902133713 20 203 4.8 9.7 0.00 0.03 0.03 86 1014.4
20260902133622 20 204 4.8 9.7 0.00 0.03 0.03 86 1014.4
20260902133523 20 217 4.8 9.7 0.00 0.03 0.03 86 1014.4
20260902133405 20 218 6.4 9.7 0.00 0.03 0.03 85 1014.4
20260902133330 20 223 6.4 9.7 0.00 0.03 0.03 85 1014.4
20260902133234 20 223 4.8 9.7 0.00 0.03 0.03 86 1014.5
20260902133058 20 227 3.2 9.7 0.00 0.03 0.03 86 1014.4
20260902133003 20 181 3.2 6.4 0.00 0.03 0.03 86 1014.5
20260902132908 20 181 4.8 6.4 0.00 0.03 0.03 86 1014.5
20260902132756 20 181 4.8 6.4 0.00 0.03 0.03 86 1014.5
20260902132701 20 180 3.2 6.4 0.00 0.03 0.03 87 1014.6
20260902132606 20 180 1.6 4.8 0.00 0.03 0.03 87 1014.6
20260902132511 20 180 3.2 4.8 0.00 0.03 0.03 87 1014.5
20260902132356 20 179 1.6 4.8 0.00 0.03 0.03 87 1014.4
20260902132306 20 179 1.6 4.8 0.00 0.03 0.03 87 1014.4
20260902132209 20 179 1.6 4.8 0.00 0.03 0.03 87 1014.4
20260902132113 20 179 1.6 4.8 0.00 0.03 0.03 87 1014.4
20260902131958 20 179 1.6 4.8 0.00 0.03 0.03 87 1014.5
20260902131903 20 179 1.6 4.8 0.00 0.03 0.03 87 1014.5
20260902131807 20 179 1.6 4.8 0.00 0.03 0.03 88 1014.5
20260902131656 20 179 3.2 4.8 0.00 0.03 0.03 88 1014.4
20260902131601 20 179 3.2 6.4 0.00 0.03 0.03 88 1014.4
20260902131526 20 179 1.6 6.4 0.00 0.03 0.03 88 1014.4
20260902131409 20 179 1.6 6.4 0.00 0.03 0.03 88 1014.4
20260902131334 20 179 1.6 6.4 0.00 0.03 0.03 88 1014.4
20260902131158 20 179 1.6 6.4 0.00 0.03 0.03 88 1014.4
20260902131103 20 179 1.6 6.4 0.00 0.03 0.03 88 1014.3
20260902131008 20 179 1.6 6.4 0.00 0.03 0.03 87 1014.3
20260902130938 20 179 3.2 6.4 0.00 0.03 0.03 88 1014.2
20260902130755 20 180 3.2 6.4 0.00 0.03 0.03 88 1014.3
20260902130721 20 180 1.6 6.4 0.00 0.03 0.03 88 1014.3
20260902130559 20 180 1.6 6.4 0.00 0.03 0.03 88 1014.3
20260902130504 20 180 0.0 6.4 0.00 0.03 0.03 88 1014.3
20260902130408 20 180 0.0 6.4 0.00 0.03 0.03 88 1014.3
20260902130257 20 180 1.6 6.4 0.00 0.03 0.03 88 1014.3
20260902130202 20 180 3.2 6.4 0.00 0.03 0.03 88 1014.2
20260902130106 20 180 4.8 6.4 0.00 0.03 0.03 88 1014.2
20260902130011 20 180 4.8 6.4 0.00 0.03 0.03 88 1014.3
20260902125917 20 184 3.2 6.4 0.00 0.03 0.03 88 1014.4
20260902125755 20 187 3.2 6.4 0.00 0.03 0.03 88 1014.4
20260902125704 20 187 3.2 6.4 0.00 0.03 0.03 88 1014.4
20260902125609 20 187 3.2 6.4 0.00 0.03 0.03 89 1014.4
20260902125513 20 186 3.2 6.4 0.00 0.03 0.03 89 1014.4
20260902125358 19 186 4.8 6.4 0.00 0.03 0.03 89 1014.3
20260902125305 19 186 4.8 6.4 0.00 0.03 0.03 89 1014.3
20260902125208 19 186 4.8 6.4 0.00 0.03 0.03 89 1014.3
20260902125056 19 186 4.8 6.4 0.00 0.03 0.03 89 1014.4
20260902125022 19 186 4.8 6.4 0.00 0.03 0.03 89 1014.4
20260902124859 19 186 4.8 6.4 0.00 0.03 0.03 89 1014.4
20260902124804 19 185 3.2 6.4 0.00 0.03 0.03 89 1014.5
20260902124709 19 184 3.2 6.4 0.00 0.03 0.03 89 1014.5
20260902124557 19 184 4.8 6.4 0.00 0.03 0.03 89 1014.5
20260902124522 19 184 4.8 6.4 0.00 0.03 0.03 89 1014.5
20260902124406 19 184 4.8 6.4 0.00 0.03 0.03 89 1014.5
20260902124311 19 184 3.2 6.4 0.00 0.03 0.03 89 1014.5
20260902124156 19 184 3.2 4.8 0.00 0.03 0.03 90 1014.5
20260902124121 19 184 3.2 4.8 0.00 0.03 0.03 90 1014.5
20260902124004 19 184 1.6 6.4 0.00 0.03 0.03 89 1014.5
20260902123929 19 184 1.6 6.4 0.00 0.03 0.03 89 1014.5
20260902123757 19 184 1.6 6.4 0.00 0.03 0.03 89 1014.4
20260902123702 19 184 1.6 6.4 0.00 0.03 0.03 90 1014.4
20260902123607 19 184 3.2 6.4 0.00 0.03 0.03 89 1014.4
20260902123512 19 184 3.2 6.4 0.00 0.03 0.03 89 1014.5
20260902123417 19 184 3.2 6.4 0.00 0.03 0.03 89 1014.4
20260902123301 19 184 4.8 6.4 0.00 0.03 0.03 89 1014.5
20260902123210 19 184 3.2 6.4 0.00 0.03 0.03 89 1014.5
20260902123114 19 184 3.2 6.4 0.00 0.03 0.03 89 1014.4
20260902123040 19 183 3.2 4.8 0.00 0.03 0.03 89 1014.4
20260902122857 19 183 3.2 6.4 0.00 0.03 0.03 89 1014.3
20260902122802 19 183 3.2 6.4 0.00 0.03 0.03 89 1014.4
20260902122706 19 183 3.2 6.4 0.00 0.03 0.03 89 1014.3
20260902122610 19 183 3.2 6.4 0.00 0.03 0.03 89 1014.3
20260902122459 19 183 3.2 6.4 0.00 0.03 0.03 89 1014.3
20260902122404 19 183 3.2 6.4 0.00 0.03 0.03 89 1014.3
20260902122328 19 183 3.2 6.4 0.00 0.03 0.03 89 1014.3
20260902122232 19 184 3.2 6.4 0.00 0.03 0.03 89 1014.3
20260902122056 19 201 3.2 6.4 0.00 0.03 0.03 89 1014.5
20260902122021 19 202 3.2 6.4 0.00 0.03 0.03 89 1014.5
20260902121905 19 211 3.2 6.4 0.00 0.03 0.03 89 1014.5
20260902121834 19 211 3.2 6.4 0.00 0.03 0.03 89 1014.5
20260902121717 19 211 3.2 4.8 0.00 0.03 0.03 89 1014.5
20260902121555 19 211 3.2 4.8 0.00 0.03 0.03 89 1014.6
20260902121521 19 211 3.2 4.8 0.00 0.03 0.03 89 1014.6
20260902121359 19 211 4.8 6.4 0.00 0.03 0.03 89 1014.7
20260902121304 19 211 4.8 6.4 0.00 0.03 0.03 89 1014.8
20260902121213 19 212 3.2 6.4 0.00 0.03 0.03 89 1014.8
20260902121058 19 212 3.2 6.4 0.00 0.03 0.03 89 1014.8
20260902121003 19 211 3.2 6.4 0.00 0.03 0.03 89 1014.7
20260902120908 19 211 3.2 6.4 0.00 0.03 0.03 89 1014.7
20260902120813 19 212 3.2 6.4 0.00 0.03 0.03 89 1014.7
20260902120718 19 212 3.2 6.4 0.00 0.03 0.03 89 1014.5
20260902120606 19 212 3.2 6.4 0.00 0.03 0.03 89 1014.5
20260902120511 19 227 1.6 4.8 0.00 0.03 0.03 89 1014.5
20260902120417 19 227 0.0 4.8 0.00 0.03 0.03 89 1014.6
20260902120255 19 227 0.0 4.8 0.00 0.03 0.03 89 1014.6
20260902120200 19 227 1.6 4.8 0.00 0.03 0.03 89 1014.8
20260902120125 19 227 1.6 4.8 0.00 0.03 0.03 89 1014.8
20260902120009 19 227 3.2 4.8 0.00 0.03 0.03 89 1014.8
20260902115918 19 227 3.2 4.8 0.00 0.03 0.03 89 1014.7
20260902115842 19 227 3.2 4.8 0.00 0.03 0.03 89 1014.8
20260902115658 18 229 3.2 4.8 0.00 0.03 0.03 89 1014.6
20260902115603 19 229 3.2 4.8 0.00 0.03 0.03 89 1014.7
20260902115508 18 229 3.2 4.8 0.00 0.03 0.03 89 1014.7
20260902115413 19 229 3.2 4.8 0.00 0.03 0.03 89 1014.6
20260902115306 18 229 3.2 4.8 0.00 0.03 0.03 89 1014.6
20260902115207 18 255 3.2 4.8 0.00 0.03 0.03 89 1014.6
20260902115112 19 261 3.2 6.4 0.00 0.03 0.03 89 1014.7
20260902115017 18 265 1.6 6.4 0.00 0.03 0.03 89 1014.8
20260902114900 19 265 1.6 6.4 0.00 0.03 0.03 89 1014.9
20260902114824 19 266 1.6 6.4 0.00 0.03 0.03 89 1014.9
20260902114708 19 267 1.6 6.4 0.00 0.03 0.03 89 1014.9
20260902114557 19 266 3.2 6.4 0.00 0.03 0.03 89 1015.0
20260902114501 19 266 4.8 6.4 0.00 0.03 0.03 89 1015.0
20260902114406 19 267 4.8 6.4 0.00 0.03 0.03 89 1015.0
20260902114311 19 266 4.8 6.4 0.00 0.03 0.03 89 1015.0
20260902114156 19 269 3.2 6.4 0.00 0.03 0.03 89 1014.9
20260902114105 19 237 3.2 6.4 0.00 0.03 0.03 89 1014.9
20260902114010 19 237 3.2 6.4 0.00 0.03 0.03 89 1014.9
20260902113914 19 236 3.2 6.4 0.00 0.03 0.03 89 1014.8
20260902113819 19 236 3.2 6.4 0.00 0.03 0.03 89 1014.8
20260902113657 19 240 3.2 6.4 0.00 0.03 0.03 89 1014.8
20260902113602 19 240 3.2 6.4 0.00 0.03 0.03 89 1014.7
20260902113511 19 240 1.6 6.4 0.00 0.03 0.03 89 1014.7
20260902113356 19 241 0.0 6.4 0.00 0.03 0.03 89 1014.7
20260902113301 19 241 1.6 6.4 0.00 0.03 0.03 89 1014.8
20260902113206 19 241 3.2 6.4 0.00 0.03 0.03 89 1014.8
20260902113111 19 241 3.2 6.4 0.00 0.03 0.03 89 1014.8
20260902112955 19 241 3.2 6.4 0.00 0.03 0.03 89 1014.8
20260902112904 19 240 3.2 6.4 0.00 0.03 0.03 89 1014.8
20260902112827 19 238 3.2 6.4 0.00 0.03 0.03 89 1014.8
20260902112711 19 238 3.2 6.4 0.00 0.03 0.03 89 1014.8
20260902112556 19 236 4.8 6.4 0.00 0.03 0.03 89 1014.9
20260902112521 19 236 3.2 6.4 0.00 0.03 0.03 89 1014.8
20260902112405 19 236 3.2 4.8 0.00 0.03 0.03 89 1014.8
20260902112310 19 236 3.2 4.8 0.00 0.03 0.03 89 1014.8
20260902112219 19 236 3.2 4.8 0.00 0.03 0.03 89 1014.7
20260902112103 19 236 1.6 4.8 0.00 0.03 0.03 89 1014.7
20260902112008 19 236 1.6 4.8 0.00 0.03 0.03 89 1014.7
20260902111913 19 236 1.6 4.8 0.00 0.03 0.03 89 1014.6
20260902111758 19 236 1.6 4.8 0.00 0.03 0.03 89 1014.6
20260902111703 19 248 1.6 4.8 0.00 0.03 0.03 89 1014.6
20260902111632 19 248 1.6 4.8 0.00 0.03 0.03 89 1014.6
20260902111456 19 252 3.2 4.8 0.00 0.03 0.03 89 1014.6
20260902111421 19 252 1.6 4.8 0.00 0.03 0.03 89 1014.6
20260902111325 19 252 1.6 6.4 0.00 0.03 0.03 89 1014.6
20260902111209 19 252 0.0 6.4 0.00 0.03 0.03 89 1014.6
20260902111113 19 252 1.6 6.4 0.00 0.03 0.03 89 1014.6
20260902110958 19 252 3.2 6.4 0.00 0.03 0.03 89 1014.6
20260902110906 19 252 3.2 6.4 0.00 0.03 0.03 89 1014.6
20260902110811 19 252 3.2 6.4 0.00 0.03 0.03 89 1014.6
20260902110656 19 252 3.2 6.4 0.00 0.03 0.03 89 1014.5
20260902110621 19 252 3.2 6.4 0.00 0.03 0.03 89 1014.5
20260902110459 19 252 3.2 6.4 0.00 0.03 0.03 89 1014.5
20260902110404 19 265 3.2 4.8 0.00 0.03 0.03 89 1014.4
20260902110333 19 265 3.2 4.8 0.00 0.03 0.03 89 1014.4
20260902110236 19 267 3.2 4.8 0.00 0.03 0.03 89 1014.4
20260902110119 19 267 3.2 4.8 0.00 0.03 0.03 89 1014.5
20260902105957 19 277 3.2 4.8 0.00 0.03 0.03 89 1014.5
20260902105901 19 279 3.2 4.8 0.00 0.03 0.03 89 1014.5
20260902105804 19 281 3.2 4.8 0.00 0.03 0.03 89 1014.6
20260902105709 19 295 3.2 4.8 0.00 0.03 0.03 89 1014.6
20260902105618 19 296 3.2 4.8 0.00 0.03 0.03 89 1014.6
20260902105502 19 295 1.6 4.8 0.00 0.03 0.03 89 1014.5
20260902105407 19 299 3.2 8.0 0.00 0.03 0.03 89 1014.5
20260902105311 19 300 3.2 8.0 0.00 0.03 0.03 89 1014.6
20260902105157 19 302 3.2 8.0 0.00 0.03 0.03 89 1014.7
20260902105101 19 300 1.6 8.0 0.00 0.03 0.03 89 1014.7
20260902105009 19 300 3.2 8.0 0.00 0.03 0.03 89 1014.7
20260902104934 19 300 3.2 8.0 0.00 0.03 0.03 89 1014.7
20260902104818 19 299 4.8 8.0 0.00 0.03 0.03 89 1014.8
20260902104742 19 296 4.8 8.0 0.00 0.03 0.03 89 1014.7
20260902104559 19 360 4.8 8.0 0.00 0.03 0.03 89 1014.7
20260902104504 19 269 4.8 8.0 0.00 0.03 0.03 89 1014.6
20260902104409 19 276 4.8 8.0 0.00 0.03 0.03 89 1014.6
20260902104318 19 287 4.8 9.7 0.00 0.03 0.03 89 1014.6
20260902104202 19 286 3.2 8.0 0.00 0.03 0.03 89 1014.6
20260902104107 19 282 4.8 12.9 0.00 0.03 0.03 89 1014.6
20260902104012 19 284 4.8 12.9 0.00 0.03 0.03 89 1014.7
20260902103917 19 291 4.8 16.1 0.00 0.03 0.03 89 1014.6
20260902103755 19 265 3.2 16.1 0.00 0.03 0.03 89 1014.5
20260902103724 19 265 3.2 16.1 0.00 0.03 0.03 89 1014.5
20260902103608 19 265 3.2 16.1 0.00 0.03 0.03 89 1014.5
20260902103533 19 265 4.8 16.1 0.00 0.03 0.03 89 1014.5
20260902103357 19 266 4.8 16.1 0.00 0.03 0.03 89 1014.5
20260902103301 19 281 6.4 16.1 0.00 0.03 0.03 89 1014.5
20260902103206 19 290 6.4 16.1 0.00 0.03 0.03 89 1014.5
20260902103110 19 275 4.8 16.1 0.00 0.03 0.03 89 1014.5
20260902102959 19 292 4.8 16.1 0.00 0.03 0.03 89 1014.6
20260902102924 19 291 6.4 16.1 0.00 0.03 0.03 89 1014.6
20260902102807 19 360 8.0 16.1 0.00 0.03 0.03 89 1014.6
20260902102712 19 302 4.8 11.3 0.00 0.03 0.03 89 1014.6
20260902102616 19 271 4.8 11.3 0.00 0.03 0.03 89 1014.6
20260902102500 19 271 4.8 11.3 0.00 0.03 0.03 89 1014.5
20260902102409 19 271 6.4 11.3 0.00 0.03 0.03 89 1014.5
20260902102313 19 275 6.4 9.7 0.00 0.03 0.03 89 1014.6
20260902102157 19 303 4.8 9.7 0.00 0.03 0.03 89 1014.6
20260902102101 19 259 4.8 9.7 0.00 0.03 0.03 89 1014.6
20260902102006 19 252 4.8 9.7 0.00 0.03 0.03 89 1014.6
20260902101931 19 252 4.8 9.7 0.00 0.03 0.03 89 1014.6
20260902101759 19 292 4.8 9.7 0.00 0.03 0.03 89 1014.6
20260902101724 19 270 4.8 9.7 0.00 0.03 0.03 89 1014.5
20260902101608 19 269 6.4 9.7 0.00 0.03 0.03 89 1014.5
20260902101513 19 271 6.4 8.0 0.00 0.03 0.03 89 1014.4
20260902101438 19 294 4.8 8.0 0.00 0.03 0.03 89 1014.3
20260902101342 19 284 4.8 9.7 0.00 0.03 0.03 89 1014.3
20260902101158 19 275 4.8 8.0 0.00 0.03 0.03 89 1014.2
20260902101103 19 267 4.8 8.0 0.00 0.03 0.03 89 1014.2
20260902101012 19 267 4.8 8.0 0.00 0.03 0.03 89 1014.2
20260902100917 19 269 4.8 8.0 0.00 0.03 0.03 89 1014.2
20260902100821 19 269 4.8 8.0 0.00 0.03 0.03 89 1014.2
20260902100659 19 269 4.8 8.0 0.00 0.03 0.03 88 1014.2
20260902100604 19 265 4.8 8.0 0.00 0.03 0.03 88 1014.1
20260902100507 19 264 4.8 8.0 0.00 0.03 0.03 88 1014.1
20260902100356 19 174 4.8 4.8 0.00 0.03 0.03 87 1013.9
20260902100321 19 173 3.2 4.8 0.00 0.03 0.03 87 1013.9
20260902100159 19 174 1.6 4.8 0.00 0.03 0.03 87 1013.8
20260902100104 19 173 0.0 3.2 0.00 0.03 0.03 87 1013.7
20260902100009 19 173 1.6 3.2 0.00 0.03 0.03 87 1013.7
20260902095913 19 173 1.6 3.2 0.00 0.03 0.03 87 1013.7
20260902095802 19 173 1.6 3.2 0.00 0.03 0.03 87 1013.4
20260902095707 19 173 1.6 3.2 0.00 0.03 0.03 87 1013.4
20260902095612 19 173 0.0 3.2 0.00 0.03 0.03 87 1013.3
20260902095517 19 173 0.0 3.2 0.00 0.03 0.03 87 1013.4
20260902095442 19 173 0.0 3.2 0.00 0.03 0.03 87 1013.3
20260902095259 19 173 1.6 3.2 0.00 0.03 0.03 87 1013.1
20260902095202 19 173 1.6 3.2 0.00 0.03 0.03 87 1013.1
20260902095111 19 173 1.6 3.2 0.00 0.03 0.03 87 1013.1
20260902095016 19 173 1.6 3.2 0.00 0.03 0.03 87 1013.1
20260902094859 19 173 1.6 4.8 0.00 0.03 0.03 87 1013.1
20260902094804 19 173 1.6 4.8 0.00 0.03 0.03 86 1013.1
20260902094709 20 173 1.6 4.8 0.00 0.03 0.03 86 1013.1
20260902094614 20 173 1.6 4.8 0.00 0.03 0.03 86 1013.1
20260902094503 20 173 1.6 4.8 0.00 0.03 0.03 86 1013.1
20260902094408 20 174 1.6 4.8 0.00 0.03 0.03 86 1013.1
20260902094313 20 174 1.6 4.8 0.00 0.03 0.03 86 1013.1
20260902094217 20 174 3.2 4.8 0.00 0.03 0.03 86 1013.1
20260902094055 20 174 3.2 4.8 0.00 0.03 0.03 86 1013.1
20260902094000 20 174 1.6 6.4 0.00 0.03 0.03 86 1013.0
20260902093909 20 174 1.6 6.4 0.00 0.03 0.03 86 1013.0
20260902093814 20 174 1.6 6.4 0.00 0.03 0.03 86 1013.0
20260902093719 20 173 1.6 6.4 0.00 0.03 0.03 86 1013.1
20260902093602 20 173 3.2 6.4 0.00 0.03 0.03 86 1013.0
20260902093527 20 174 3.2 8.0 0.00 0.03 0.03 86 1013.0
20260902093431 20 174 3.2 9.7 0.00 0.03 0.03 86 1013.0
20260902093334 20 175 3.2 11.3 0.00 0.03 0.03 86 1012.8
20260902093202 20 175 4.8 11.3 0.00 0.03 0.03 86 1012.8
20260902093107 20 175 4.8 11.3 0.00 0.03 0.03 86 1012.8
20260902093012 20 177 3.2 11.3 0.00 0.03 0.03 86 1012.7
20260902092917 20 179 4.8 11.3 0.00 0.03 0.03 86 1012.8
20260902092801 20 179 6.4 11.3 0.00 0.03 0.03 86 1012.8
20260902092706 20 182 8.0 11.3 0.00 0.03 0.03 86 1012.8
20260902092631 20 182 6.4 11.3 0.00 0.03 0.03 86 1012.8
20260902092457 20 183 6.4 11.3 0.00 0.03 0.03 86 1013.0
20260902092401 20 171 8.0 9.7 0.00 0.03 0.03 86 1012.9
20260902092326 20 177 6.4 9.7 0.00 0.03 0.03 86 1012.9
20260902092210 20 188 6.4 9.7 0.00 0.03 0.03 86 1012.9
20260902092135 20 182 4.8 8.0 0.00 0.03 0.03 86 1013.0
20260902092038 20 171 4.8 8.0 0.00 0.03 0.03 86 1013.0
20260902091855 20 180 4.8 8.0 0.00 0.03 0.03 86 1013.0
20260902091800 20 178 4.8 8.0 0.00 0.03 0.03 86 1013.0
20260902091708 20 177 6.4 8.0 0.00 0.03 0.03 85 1013.0
20260902091613 20 178 6.4 8.0 0.00 0.03 0.03 85 1013.0
20260902091458 20 177 4.8 8.0 0.00 0.03 0.03 85 1013.2
20260902091402 20 175 4.8 9.7 0.00 0.03 0.03 85 1013.2
20260902091307 20 173 4.8 8.0 0.00 0.03 0.03 86 1013.2
20260902091156 20 173 4.8 8.0 0.00 0.03 0.03 86 1013.2
20260902091101 20 170 4.8 8.0 0.00 0.03 0.03 86 1013.2
20260902091006 20 172 4.8 8.0 0.00 0.03 0.03 86 1013.2
20260902090930 20 173 4.8 8.0 0.00 0.03 0.03 86 1013.2
20260902090813 20 173 4.8 8.0 0.00 0.03 0.03 86 1013.1
20260902090738 20 195 4.8 8.0 0.00 0.03 0.03 86 1013.1
20260902090642 20 168 4.8 9.7 0.00 0.03 0.03 86 1013.1
20260902090459 20 167 6.4 9.7 0.00 0.03 0.03 87 1013.0
20260902090408 20 163 6.4 8.0 0.00 0.03 0.03 87 1013.0
20260902090313 20 173 6.4 9.7 0.00 0.03 0.03 87 1013.1
20260902090158 20 169 4.8 8.0 0.00 0.03 0.03 87 1013.2
20260902090007 20 171 6.4 9.7 0.00 0.03 0.03 87 1013.3
20260902085855 20 163 4.8 9.7 0.03 0.03 0.03 88 1013.4
20260902085800 20 163 6.4 9.7 0.03 0.03 0.03 88 1013.4
20260902085705 20 165 4.8 9.7 0.03 0.03 0.03 88 1013.5
20260902085610 20 169 4.8 9.7 0.03 0.03 0.03 89 1013.5
20260902085455 20 177 4.8 6.4 0.03 0.03 0.03 89 1013.6
20260902085359 20 177 4.8 6.4 0.03 0.03 0.03 89 1013.7
20260902085308 20 178 3.2 6.4 0.03 0.03 0.03 89 1013.7
20260902085213 20 182 3.2 6.4 0.03 0.03 0.03 89 1013.7
20260902085059 20 182 3.2 6.4 0.03 0.03 0.03 89 1013.7
20260902085003 20 182 3.2 6.4 0.03 0.03 0.03 89 1013.8
20260902084908 20 182 3.2 6.4 0.03 0.03 0.03 89 1013.8
20260902084813 20 182 3.2 6.4 0.03 0.03 0.03 89 1013.8
20260902084702 20 182 4.8 6.4 0.03 0.03 0.03 89 1013.9
20260902084607 20 182 4.8 6.4 0.03 0.03 0.03 89 1013.9
20260902084512 20 182 3.2 6.4 0.03 0.03 0.03 89 1013.9
20260902084417 20 182 4.8 6.4 0.03 0.03 0.03 89 1013.9
20260902084301 20 181 3.2 6.4 0.03 0.03 0.03 89 1013.8
20260902084205 20 181 3.2 6.4 0.03 0.03 0.03 89 1013.7
20260902084114 20 181 1.6 6.4 0.03 0.03 0.03 89 1013.7
20260902084019 20 181 1.6 6.4 0.03 0.03 0.03 89 1013.7
20260902083856 20 181 3.2 6.4 0.03 0.03 0.03 89 1013.7
20260902083821 20 181 3.2 6.4 0.03 0.03 0.03 88 1013.8
20260902083704 20 181 3.2 6.4 0.03 0.03 0.03 88 1013.8
20260902083609 20 181 3.2 4.8 0.03 0.03 0.03 88 1013.8
20260902083458 20 181 3.2 3.2 0.03 0.03 0.03 88 1013.8
20260902083403 20 181 3.2 3.2 0.03 0.03 0.03 88 1013.9
20260902083308 20 181 3.2 3.2 0.03 0.03 0.03 88 1013.9
20260902083213 20 181 3.2 3.2 0.03 0.03 0.03 88 1013.9
20260902083057 20 181 3.2 3.2 0.03 0.03 0.03 88 1014.0
20260902083002 20 181 3.2 3.2 0.03 0.03 0.03 88 1014.0
20260902082911 20 181 3.2 3.2 0.03 0.03 0.03 88 1014.0
20260902082756 20 181 3.2 3.2 0.03 0.03 0.03 88 1014.2
20260902082701 20 181 1.6 3.2 0.03 0.03 0.03 87 1014.1
20260902082605 20 181 1.6 3.2 0.03 0.03 0.03 87 1014.1
20260902082509 20 181 0.0 3.2 0.03 0.03 0.03 87 1014.1
20260902082414 20 181 0.0 4.8 0.03 0.03 0.03 87 1014.1
20260902082308 20 181 0.0 4.8 0.03 0.03 0.03 87 1014.2
20260902082208 20 181 0.0 4.8 0.03 0.03 0.03 87 1014.2
20260902082113 20 181 0.0 6.4 0.03 0.03 0.03 87 1014.2
20260902081958 20 181 0.0 6.4 0.03 0.03 0.03 87 1014.0
20260902081903 20 181 0.0 6.4 0.03 0.03 0.03 87 1014.1
20260902081808 20 181 1.6 6.4 0.03 0.03 0.03 87 1014.1
20260902081656 20 181 1.6 6.4 0.03 0.03 0.03 87 1014.0
20260902081601 20 181 1.6 6.4 0.03 0.03 0.03 87 1014.0
20260902081505 20 181 1.6 6.4 0.03 0.03 0.03 87 1014.0
20260902081410 20 181 3.2 6.4 0.03 0.03 0.03 87 1014.0
20260902081255 20 181 3.2 6.4 0.03 0.03 0.03 87 1013.9
20260902081219 20 192 3.2 6.4 0.03 0.03 0.03 87 1013.9
20260902081106 20 192 3.2 6.4 0.03 0.03 0.03 87 1013.9
20260902081011 20 192 4.8 6.4 0.03 0.03 0.03 87 1013.9
20260902080855 20 193 4.8 6.4 0.03 0.03 0.03 87 1013.9
20260902080819 20 192 4.8 6.4 0.03 0.03 0.03 87 1013.9
20260902080722 20 192 4.8 6.4 0.03 0.03 0.03 87 1013.9
20260902080559 20 192 6.4 6.4 0.03 0.03 0.03 87 1013.9
20260902080508 20 204 6.4 6.4 0.03 0.03 0.03 86 1013.9
20260902080413 20 204 6.4 6.4 0.03 0.03 0.03 87 1013.9
20260902080257 20 204 4.8 6.4 0.03 0.03 0.03 87 1013.9
20260902080202 20 203 4.8 6.4 0.03 0.03 0.03 87 1014.1
20260902080127 20 204 3.2 6.4 0.03 0.03 0.03 86 1014.1
20260902080011 20 200 4.8 6.4 0.00 0.00 0.00 86 1014.0
20260902075935 20 200 3.2 6.4 0.00 0.00 0.00 86 1014.0
20260902075803 20 200 3.2 8.0 0.00 0.00 0.00 86 1014.1
20260902075708 20 200 3.2 8.0 0.00 0.00 0.00 85 1014.1
20260902075613 20 200 3.2 8.0 0.00 0.00 0.00 85 1014.0
20260902075458 20 200 4.8 8.0 0.00 0.00 0.00 85 1014.0
20260902075403 20 200 4.8 9.7 0.00 0.00 0.00 85 1014.0
20260902075308 20 200 4.8 9.7 0.00 0.00 0.00 85 1014.0
20260902075217 20 199 4.8 9.7 0.00 0.00 0.00 85 1014.0
20260902075121 20 198 4.8 9.7 0.00 0.00 0.00 85 1014.0
20260902074959 20 197 4.8 9.7 0.00 0.00 0.00 85 1014.0
20260902074923 20 197 4.8 9.7 0.00 0.00 0.00 85 1014.0
20260902074807 20 207 6.4 9.7 0.00 0.00 0.00 85 1014.0
20260902074732 20 209 6.4 11.3 0.00 0.00 0.00 85 1014.1
20260902074556 20 200 4.8 11.3 0.00 0.00 0.00 86 1014.1
20260902074525 20 226 4.8 11.3 0.00 0.00 0.00 86 1014.1
20260902074429 20 226 4.8 11.3 0.00 0.00 0.00 86 1014.1
20260902074313 20 226 4.8 11.3 0.00 0.00 0.00 86 1014.2
20260902074158 20 216 6.4 11.3 0.00 0.00 0.00 86 1014.1
20260902074103 20 217 6.4 11.3 0.00 0.00 0.00 87 1014.1
20260902074026 20 213 8.0 11.3 0.00 0.00 0.00 87 1014.1
20260902073910 20 247 8.0 14.5 0.00 0.00 0.00 87 1014.1
20260902073759 20 217 8.0 14.5 0.00 0.00 0.00 87 1014.1
20260902073704 20 208 8.0 14.5 0.00 0.00 0.00 88 1014.3
20260902073608 20 196 8.0 14.5 0.00 0.00 0.00 88 1014.3
20260902073512 20 219 6.4 14.5 0.00 0.00 0.00 89 1014.3
20260902073357 20 218 8.0 14.5 0.00 0.00 0.00 89 1014.5
20260902073322 20 217 9.7 14.5 0.00 0.00 0.00 89 1014.5
20260902073210 20 195 9.7 14.5 0.00 0.00 0.00 89 1014.5
20260902073114 20 238 9.7 14.5 0.00 0.00 0.00 89 1014.5
20260902072959 20 257 8.0 14.5 0.00 0.00 0.00 90 1014.5
20260902072903 20 254 6.4 9.7 0.00 0.00 0.00 90 1014.5
20260902072808 20 221 6.4 9.7 0.00 0.00 0.00 90 1014.5
20260902072713 20 217 6.4 9.7 0.00 0.00 0.00 90 1014.5
20260902072602 20 232 6.4 9.7 0.00 0.00 0.00 90 1014.5
20260902072507 20 224 4.8 9.7 0.00 0.00 0.00 90 1014.5
20260902072412 20 223 6.4 9.7 0.00 0.00 0.00 90 1014.5
20260902072317 20 237 6.4 9.7 0.00 0.00 0.00 90 1014.6
20260902072200 20 234 6.4 9.7 0.00 0.00 0.00 90 1014.6
20260902072103 20 235 6.4 9.7 0.00 0.00 0.00 90 1014.6
20260902072012 20 237 4.8 9.7 0.00 0.00 0.00 90 1014.6
20260902071916 20 217 4.8 8.0 0.00 0.00 0.00 89 1014.6
20260902071755 20 217 6.4 8.0 0.00 0.00 0.00 89 1014.6
20260902071700 20 215 6.4 8.0 0.00 0.00 0.00 89 1014.6
20260902071603 20 215 6.4 8.0 0.00 0.00 0.00 89 1014.5
20260902071508 20 215 6.4 8.0 0.00 0.00 0.00 89 1014.5
20260902071357 20 215 6.4 8.0 0.00 0.00 0.00 89 1014.5
20260902071300 20 221 6.4 8.0 0.00 0.00 0.00 89 1014.6
20260902071205 20 223 6.4 8.0 0.00 0.00 0.00 89 1014.6
20260902071110 20 225 6.4 8.0 0.00 0.00 0.00 89 1014.7
20260902071035 20 225 6.4 8.0 0.00 0.00 0.00 89 1014.7
20260902070859 20 230 6.4 8.0 0.00 0.00 0.00 89 1014.8
20260902070824 20 230 4.8 6.4 0.00 0.00 0.00 89 1014.8
20260902070708 20 230 4.8 6.4 0.00 0.00 0.00 89 1014.8
20260902070618 20 232 4.8 6.4 0.00 0.00 0.00 88 1014.9
20260902070455 20 232 4.8 6.4 0.00 0.00 0.00 88 1015.0
20260902070420 20 232 4.8 8.0 0.00 0.00 0.00 88 1015.0
20260902070258 20 232 3.2 11.3 0.00 0.00 0.00 88 1014.9
20260902070203 20 232 3.2 11.3 0.00 0.00 0.00 88 1015.0
20260902070107 20 232 3.2 11.3 0.00 0.00 0.00 88 1015.0
20260902065956 19 232 3.2 11.3 0.00 0.00 0.00 89 1015.0
20260902065921 19 232 3.2 11.3 0.00 0.00 0.00 89 1015.0
20260902065759 19 232 4.8 11.3 0.00 0.00 0.00 89 1015.1
20260902065704 19 232 4.8 11.3 0.00 0.00 0.00 89 1015.1
20260902065609 19 232 4.8 11.3 0.00 0.00 0.00 89 1015.1
20260902065457 19 243 6.4 11.3 0.00 0.00 0.00 89 1015.1
20260902065423 19 246 4.8 11.3 0.00 0.00 0.00 89 1015.1
20260902065307 19 233 4.8 6.4 0.00 0.00 0.00 89 1015.1
20260902065212 19 243 4.8 6.4 0.00 0.00 0.00 89 1015.2
20260902065116 18 252 3.2 6.4 0.00 0.00 0.00 89 1015.2
20260902065020 18 257 1.6 6.4 0.00 0.00 0.00 90 1015.2
20260902064858 18 257 1.6 6.4 0.00 0.00 0.00 90 1015.2
20260902064805 18 257 1.6 6.4 0.00 0.00 0.00 90 1015.2
20260902064709 18 257 3.2 6.4 0.00 0.00 0.00 90 1015.2
20260902064613 18 257 3.2 6.4 0.00 0.00 0.00 89 1015.2
20260902064519 18 257 3.2 6.4 0.00 0.00 0.00 90 1015.1
20260902064356 18 257 3.2 6.4 0.00 0.00 0.00 90 1015.2
20260902064301 18 258 3.2 6.4 0.00 0.00 0.00 90 1015.1
20260902064210 18 258 3.2 6.4 0.00 0.00 0.00 90 1015.1
20260902064135 18 258 3.2 6.4 0.00 0.00 0.00 90 1015.1
20260902064020 18 259 4.8 6.4 0.00 0.00 0.00 90 1015.1
20260902063858 18 277 4.8 6.4 0.00 0.00 0.00 90 1015.1
20260902063803 18 82 4.8 6.4 0.00 0.00 0.00 90 1015.1
20260902063708 18 82 3.2 6.4 0.00 0.00 0.00 90 1015.1
20260902063557 18 82 3.2 6.4 0.00 0.00 0.00 90 1015.2
20260902063502 18 82 3.2 6.4 0.00 0.00 0.00 90 1015.1
20260902063426 18 82 3.2 6.4 0.00 0.00 0.00 90 1015.1
20260902063330 18 82 3.2 6.4 0.00 0.00 0.00 90 1015.1
20260902063214 18 82 3.2 6.4 0.00 0.00 0.00 90 1014.9
20260902063059 18 82 4.8 6.4 0.00 0.00 0.00 90 1014.9
20260902063003 18 82 4.8 6.4 0.00 0.00 0.00 90 1014.9
20260902062912 18 82 4.8 6.4 0.00 0.00 0.00 90 1014.9
20260902062757 18 82 4.8 6.4 0.00 0.00 0.00 90 1014.8
20260902062702 18 82 4.8 4.8 0.00 0.00 0.00 90 1014.8
20260902062607 18 82 3.2 4.8 0.00 0.00 0.00 90 1014.8
20260902062510 18 82 3.2 4.8 0.00 0.00 0.00 90 1014.8
20260902062355 18 82 3.2 4.8 0.00 0.00 0.00 90 1014.8
20260902062306 18 82 3.2 4.8 0.00 0.00 0.00 90 1014.7
20260902062207 18 82 1.6 3.2 0.00 0.00 0.00 89 1014.7
20260902062132 18 82 1.6 3.2 0.00 0.00 0.00 89 1014.7
20260902062036 18 82 1.6 3.2 0.00 0.00 0.00 89 1014.6
20260902061939 18 82 1.6 4.8 0.00 0.00 0.00 89 1014.6
20260902061756 18 82 1.6 4.8 0.00 0.00 0.00 89 1014.5
20260902061720 18 82 1.6 4.8 0.00 0.00 0.00 89 1014.5
20260902061558 18 82 1.6 4.8 0.00 0.00 0.00 89 1014.4
20260902061507 18 82 1.6 4.8 0.00 0.00 0.00 89 1014.4
20260902061412 18 82 3.2 4.8 0.00 0.00 0.00 89 1014.4
20260902061257 18 82 3.2 4.8 0.00 0.00 0.00 89 1014.3
20260902061221 18 82 3.2 4.8 0.00 0.00 0.00 89 1014.2
20260902061105 18 82 3.2 4.8 0.00 0.00 0.00 89 1014.2
20260902061010 18 82 3.2 4.8 0.00 0.00 0.00 89 1014.1
20260902060859 18 82 1.6 3.2 0.00 0.00 0.00 88 1014.1
20260902060823 18 82 0.0 3.2 0.00 0.00 0.00 88 1014.0
20260902060706 18 82 0.0 3.2 0.00 0.00 0.00 88 1014.0
20260902060611 18 82 0.0 3.2 0.00 0.00 0.00 88 1013.9
20260902060516 18 82 0.0 3.2 0.00 0.00 0.00 88 1013.7
20260902060400 18 82 1.6 3.2 0.00 0.00 0.00 88 1013.6
20260902060305 18 82 1.6 3.2 0.00 0.00 0.00 88 1013.6
20260902060230 18 82 1.6 3.2 0.00 0.00 0.00 88 1013.6
20260902060058 18 82 1.6 3.2 0.00 0.00 0.00 88 1013.7
20260902060002 18 82 1.6 3.2 0.00 0.00 0.00 88 1013.7
20260902055928 18 82 1.6 3.2 0.00 0.00 0.00 88 1013.7
20260902055812 18 82 1.6 4.8 0.00 0.00 0.00 88 1013.7
20260902055657 18 82 0.0 4.8 0.00 0.00 0.00 88 1013.7
20260902055621 18 82 0.0 4.8 0.00 0.00 0.00 88 1013.7
20260902055509 18 82 0.0 4.8 0.00 0.00 0.00 88 1013.7
20260902055414 18 82 1.6 4.8 0.00 0.00 0.00 88 1013.7
20260902055259 18 82 1.6 4.8 0.00 0.00 0.00 88 1013.7
20260902055204 18 82 3.2 4.8 0.00 0.00 0.00 88 1013.9
20260902055109 18 82 3.2 4.8 0.00 0.00 0.00 88 1013.9
20260902055034 18 82 3.2 4.8 0.00 0.00 0.00 88 1013.8
20260902054917 18 82 3.2 4.8 0.00 0.00 0.00 88 1014.0
20260902054804 18 82 1.6 4.8 0.00 0.00 0.00 88 1014.1
20260902054707 18 81 0.0 3.2 0.00 0.00 0.00 88 1014.1
20260902054612 18 81 1.6 3.2 0.00 0.00 0.00 88 1014.1
20260902054517 18 81 1.6 3.2 0.00 0.00 0.00 88 1014.3
20260902054401 18 81 1.6 3.2 0.00 0.00 0.00 88 1014.2
20260902054305 18 81 1.6 3.2 0.00 0.00 0.00 88 1014.2
20260902054210 18 81 1.6 3.2 0.00 0.00 0.00 88 1014.4
20260902054059 18 82 1.6 3.2 0.00 0.00 0.00 89 1014.3
20260902054002 18 81 1.6 3.2 0.00 0.00 0.00 89 1014.4
20260902053907 18 81 1.6 3.2 0.00 0.00 0.00 89 1014.4
20260902053831 18 82 1.6 3.2 0.00 0.00 0.00 89 1014.4
20260902053655 18 82 1.6 3.2 0.00 0.00 0.00 89 1014.5
20260902053600 18 81 1.6 3.2 0.00 0.00 0.00 89 1014.4
20260902053509 18 82 1.6 3.2 0.00 0.00 0.00 89 1014.4
20260902053433 18 81 0.0 1.6 0.00 0.00 0.00 89 1014.5
20260902053257 18 81 0.0 0.0 0.00 0.00 0.00 89 1014.6
20260902053222 18 81 0.0 0.0 0.00 0.00 0.00 89 1014.6
20260902053104 18 81 0.0 0.0 0.00 0.00 0.00 89 1014.7
20260902053009 18 81 0.0 0.0 0.00 0.00 0.00 89 1014.7
20260902052934 18 81 0.0 0.0 0.00 0.00 0.00 89 1014.7
20260902052802 18 81 0.0 0.0 0.00 0.00 0.00 89 1014.8
20260902052707 18 81 0.0 0.0 0.00 0.00 0.00 89 1014.8
20260902052612 18 81 0.0 0.0 0.00 0.00 0.00 89 1014.7
20260902052457 18 81 0.0 0.0 0.00 0.00 0.00 89 1014.8
20260902052402 18 81 0.0 0.0 0.00 0.00 0.00 89 1014.8
20260902052325 18 81 0.0 0.0 0.00 0.00 0.00 89 1014.8
20260902052229 18 81 0.0 0.0 0.00 0.00 0.00 89 1014.8
20260902052118 18 81 0.0 0.0 0.00 0.00 0.00 89 1014.8
20260902051956 18 81 0.0 1.6 0.00 0.00 0.00 89 1014.8
20260902051901 18 81 0.0 1.6 0.00 0.00 0.00 89 1014.8
20260902051804 18 81 0.0 3.2 0.00 0.00 0.00 89 1014.8
20260902051709 18 81 0.0 3.2 0.00 0.00 0.00 89 1014.8
20260902051614 18 81 0.0 3.2 0.00 0.00 0.00 89 1014.8
20260902051503 18 81 0.0 3.2 0.00 0.00 0.00 89 1014.8
20260902051428 18 81 0.0 3.2 0.00 0.00 0.00 89 1014.8
20260902051312 18 81 0.0 3.2 0.00 0.00 0.00 89 1014.8
20260902051217 18 81 0.0 3.2 0.00 0.00 0.00 89 1014.8
20260902051101 18 81 1.6 3.2 0.00 0.00 0.00 89 1014.7
20260902051006 18 81 1.6 3.2 0.00 0.00 0.00 89 1014.7
20260902050910 18 81 0.0 1.6 0.00 0.00 0.00 89 1014.7
20260902050819 18 81 0.0 0.0 0.00 0.00 0.00 89 1014.6
20260902050656 18 81 0.0 0.0 0.00 0.00 0.00 89 1014.7
20260902050620 18 81 0.0 0.0 0.00 0.00 0.00 89 1014.7
20260902050458 18 81 0.0 0.0 0.00 0.00 0.00 89 1014.6
20260902050400 18 81 0.0 0.0 0.00 0.00 0.00 89 1014.6
20260902050325 18 81 0.0 0.0 0.00 0.00 0.00 89 1014.6
20260902050229 18 81 0.0 0.0 0.00 0.00 0.00 89 1014.6
20260902050129 18 81 0.0 0.0 0.00 0.00 0.00 89 1014.6
20260902050013 18 81 0.0 0.0 0.00 0.00 0.00 89 1014.5
20260902045919 18 81 0.0 0.0 0.00 0.00 0.00 89 1014.4
20260902045757 18 81 0.0 0.0 0.00 0.00 0.00 89 1014.4
20260902045701 18 81 0.0 0.0 0.00 0.00 0.00 89 1014.3
20260902045607 18 81 0.0 0.0 0.00 0.00 0.00 89 1014.2
20260902045517 18 81 0.0 0.0 0.00 0.00 0.00 89 1014.2
20260902045354 18 81 0.0 0.0 0.00 0.00 0.00 89 1014.2
20260902045320 18 81 0.0 0.0 0.00 0.00 0.00 89 1014.2
20260902045157 18 81 0.0 0.0 0.00 0.00 0.00 88 1014.3
20260902045101 18 81 0.0 0.0 0.00 0.00 0.00 88 1014.2
20260902045007 18 81 0.0 0.0 0.00 0.00 0.00 88 1014.2
20260902044916 18 81 0.0 0.0 0.00 0.00 0.00 88 1014.2
20260902044842 18 81 0.0 0.0 0.00 0.00 0.00 88 1014.3
20260902044659 18 81 0.0 0.0 0.00 0.00 0.00 88 1014.2
20260902044603 18 81 0.0 0.0 0.00 0.00 0.00 88 1014.2
20260902044509 18 81 0.0 0.0 0.00 0.00 0.00 88 1014.2
20260902044414 18 81 0.0 0.0 0.00 0.00 0.00 88 1014.1
20260902044303 18 81 0.0 0.0 0.00 0.00 0.00 88 1014.0
20260902044207 18 81 0.0 0.0 0.00 0.00 0.00 88 1014.0
20260902044112 18 81 0.0 0.0 0.00 0.00 0.00 88 1014.0
20260902044038 18 81 0.0 0.0 0.00 0.00 0.00 88 1014.0
20260902043855 18 81 0.0 0.0 0.00 0.00 0.00 88 1014.1
20260902043821 18 81 0.0 0.0 0.00 0.00 0.00 88 1014.1
20260902043659 18 81 0.0 0.0 0.00 0.00 0.00 88 1014.0
20260902043628 18 81 0.0 0.0 0.00 0.00 0.00 88 1014.0
20260902043532 18 81 0.0 0.0 0.00 0.00 0.00 88 1014.0
20260902043416 18 81 0.0 0.0 0.00 0.00 0.00 88 1013.9
20260902043319 18 81 0.0 0.0 0.00 0.00 0.00 88 1013.9
20260902043157 18 81 0.0 0.0 0.00 0.00 0.00 88 1013.9
20260902043102 18 81 0.0 0.0 0.00 0.00 0.00 88 1013.9
20260902043007 18 81 0.0 0.0 0.00 0.00 0.00 88 1014.0
20260902042856 18 81 0.0 0.0 0.00 0.00 0.00 87 1013.9
20260902042801 18 81 0.0 0.0 0.00 0.00 0.00 87 1014.0
20260902042706 18 81 0.0 0.0 0.00 0.00 0.00 87 1013.9
20260902042610 18 81 0.0 0.0 0.00 0.00 0.00 87 1013.9
20260902042517 18 81 0.0 0.0 0.00 0.00 0.00 87 1013.9
20260902042355 18 81 0.0 0.0 0.00 0.00 0.00 87 1013.9
20260902042308 18 81 0.0 0.0 0.00 0.00 0.00 87 1013.9
20260902042228 18 81 0.0 0.0 0.00 0.00 0.00 87 1013.9
20260902042112 18 81 0.0 0.0 0.00 0.00 0.00 87 1013.9
20260902042038 18 81 0.0 0.0 0.00 0.00 0.00 87 1013.9
20260902041855 18 81 0.0 0.0 0.00 0.00 0.00 87 1013.9
20260902041800 18 81 0.0 1.6 0.00 0.00 0.00 87 1014.0
20260902041725 18 81 0.0 3.2 0.00 0.00 0.00 87 1013.9
20260902041612 18 81 0.0 3.2 0.00 0.00 0.00 87 1013.9
20260902041539 18 81 0.0 3.2 0.00 0.00 0.00 87 1013.9
20260902041355 18 81 0.0 3.2 0.00 0.00 0.00 87 1013.8
20260902041300 18 81 0.0 3.2 0.00 0.00 0.00 87 1013.8
20260902041205 18 81 0.0 3.2 0.00 0.00 0.00 87 1013.8
20260902041110 18 81 0.0 3.2 0.00 0.00 0.00 87 1013.8
20260902040959 18 81 1.6 3.2 0.00 0.00 0.00 87 1013.8
20260902040904 18 81 3.2 3.2 0.00 0.00 0.00 87 1013.9
20260902040809 18 81 1.6 3.2 0.00 0.00 0.00 87 1013.9
20260902040734 18 81 1.6 3.2 0.00 0.00 0.00 87 1013.9
20260902040618 18 81 0.0 0.0 0.00 0.00 0.00 87 1013.7
20260902040502 18 81 0.0 0.0 0.00 0.00 0.00 87 1013.7
20260902040427 18 81 0.0 0.0 0.00 0.00 0.00 87 1013.8
20260902040331 18 81 0.0 0.0 0.00 0.00 0.00 87 1013.8
20260902040218 18 81 0.0 0.0 0.00 0.00 0.00 87 1013.8
20260902040006 18 81 0.0 0.0 0.00 0.00 0.00 87 1013.9
20260902035911 18 81 0.0 1.6 0.00 0.00 0.00 87 1013.9
20260902035755 18 81 0.0 1.6 0.00 0.00 0.00 87 1013.9
20260902035720 19 81 0.0 1.6 0.00 0.00 0.00 86 1013.9
20260902035604 19 81 0.0 1.6 0.00 0.00 0.00 87 1013.9
20260902035513 19 81 0.0 1.6 0.00 0.00 0.00 86 1013.9
20260902035417 19 81 0.0 1.6 0.00 0.00 0.00 86 1013.9
20260902035255 19 81 0.0 3.2 0.00 0.00 0.00 86 1014.0
20260902035221 19 81 0.0 3.2 0.00 0.00 0.00 86 1014.0
20260902035059 19 81 0.0 3.2 0.00 0.00 0.00 86 1014.1
20260902035003 19 81 0.0 3.2 0.00 0.00 0.00 86 1014.1
20260902034913 19 81 1.6 3.2 0.00 0.00 0.00 86 1014.1
20260902034817 19 81 1.6 3.2 0.00 0.00 0.00 86 1014.2
20260902034655 19 81 1.6 3.2 0.00 0.00 0.00 86 1014.3
20260902034600 19 81 1.6 3.2 0.00 0.00 0.00 86 1014.3
20260902034505 19 81 1.6 3.2 0.00 0.00 0.00 86 1014.2
20260902034408 19 81 0.0 1.6 0.00 0.00 0.00 86 1014.2
20260902034317 19 81 0.0 0.0 0.00 0.00 0.00 86 1014.2
20260902034154 19 81 0.0 0.0 0.00 0.00 0.00 86 1014.4
20260902034121 19 81 0.0 0.0 0.00 0.00 0.00 86 1014.4
20260902033959 19 81 0.0 0.0 0.00 0.00 0.00 86 1014.5
20260902033904 19 81 0.0 0.0 0.00 0.00 0.00 86 1014.5
20260902033809 19 81 0.0 0.0 0.00 0.00 0.00 86 1014.5
20260902033718 19 81 0.0 0.0 0.00 0.00 0.00 86 1014.5
20260902033555 19 81 0.0 0.0 0.00 0.00 0.00 85 1014.6
20260902033500 19 81 0.0 0.0 0.00 0.00 0.00 85 1014.6
20260902033405 19 81 0.0 0.0 0.00 0.00 0.00 85 1014.6
20260902033330 19 81 0.0 0.0 0.00 0.00 0.00 85 1014.6
20260902033214 19 81 0.0 0.0 0.00 0.00 0.00 85 1014.6
20260902033102 19 81 0.0 0.0 0.00 0.00 0.00 85 1014.7
20260902033008 19 81 0.0 0.0 0.00 0.00 0.00 85 1014.7
20260902032913 19 81 0.0 0.0 0.00 0.00 0.00 85 1014.7
20260902032838 19 81 0.0 0.0 0.00 0.00 0.00 85 1014.7
20260902032654 19 81 0.0 0.0 0.00 0.00 0.00 85 1014.8
20260902032600 19 81 0.0 0.0 0.00 0.00 0.00 85 1014.7
20260902032524 19 81 0.0 0.0 0.00 0.00 0.00 85 1014.6
20260902032412 19 81 0.0 0.0 0.00 0.00 0.00 85 1014.6
20260902032255 19 81 0.0 0.0 0.00 0.00 0.00 85 1014.6
20260902032219 19 81 0.0 0.0 0.00 0.00 0.00 85 1014.6
20260902032057 19 81 0.0 0.0 0.00 0.00 0.00 85 1014.6
20260902032021 19 81 0.0 0.0 0.00 0.00 0.00 85 1014.5
20260902031905 20 81 0.0 0.0 0.00 0.00 0.00 85 1014.6
20260902031810 19 81 0.0 0.0 0.00 0.00 0.00 85 1014.6
20260902031659 20 81 0.0 0.0 0.00 0.00 0.00 85 1014.5
20260902031604 20 81 0.0 0.0 0.00 0.00 0.00 85 1014.5
20260902031529 20 81 0.0 0.0 0.00 0.00 0.00 85 1014.5
20260902031413 20 81 0.0 1.6 0.00 0.00 0.00 85 1014.5
20260902031257 20 81 0.0 1.6 0.00 0.00 0.00 85 1014.5
20260902031202 20 81 0.0 3.2 0.00 0.00 0.00 85 1014.5
20260902031110 20 81 0.0 3.2 0.00 0.00 0.00 85 1014.5
20260902031017 20 81 0.0 3.2 0.00 0.00 0.00 86 1014.5
20260902030855 20 81 0.0 3.2 0.00 0.00 0.00 86 1014.5
20260902030800 20 81 0.0 3.2 0.00 0.00 0.00 86 1014.5
20260902030724 20 81 0.0 3.2 0.00 0.00 0.00 85 1014.5
20260902030609 20 81 1.6 3.2 0.00 0.00 0.00 85 1014.5
20260902030533 20 81 1.6 3.2 0.00 0.00 0.00 85 1014.5
20260902030421 20 81 1.6 3.2 0.00 0.00 0.00 85 1014.5
20260902030259 20 81 0.0 0.0 0.00 0.00 0.00 85 1014.5
20260902030204 20 81 0.0 0.0 0.00 0.00 0.00 85 1014.4
20260902030129 20 81 0.0 0.0 0.00 0.00 0.00 85 1014.4
20260902030032 20 81 0.0 0.0 0.00 0.00 0.00 85 1014.4
20260902025935 20 81 0.0 0.0 0.00 0.00 0.00 85 1014.4
20260902025757 20 81 0.0 0.0 0.00 0.00 0.00 85 1014.4
20260902025702 20 81 0.0 0.0 0.00 0.00 0.00 85 1014.4
20260902025611 20 81 0.0 0.0 0.00 0.00 0.00 85 1014.4
20260902025456 20 81 0.0 0.0 0.00 0.00 0.00 84 1014.4
20260902025400 20 81 0.0 0.0 0.00 0.00 0.00 84 1014.4
20260902025306 20 81 0.0 0.0 0.00 0.00 0.00 84 1014.4
20260902025209 20 81 0.0 0.0 0.00 0.00 0.00 84 1014.4
20260902025114 20 81 0.0 0.0 0.00 0.00 0.00 83 1014.4
20260902025019 20 81 0.0 0.0 0.00 0.00 0.00 83 1014.4
20260902024926 20 81 0.0 0.0 0.00 0.00 0.00 83 1014.2
20260902024829 20 81 0.0 0.0 0.00 0.00 0.00 83 1014.2
20260902024713 20 81 0.0 0.0 0.00 0.00 0.00 83 1014.2
20260902024617 20 81 0.0 0.0 0.00 0.00 0.00 83 1014.2
20260902024455 20 81 0.0 0.0 0.00 0.00 0.00 83 1014.1
20260902024400 20 81 0.0 0.0 0.00 0.00 0.00 83 1014.1
20260902024305 20 81 0.0 0.0 0.00 0.00 0.00 83 1014.1
20260902024213 20 81 0.0 0.0 0.00 0.00 0.00 82 1014.1
20260902024119 20 81 0.0 0.0 0.00 0.00 0.00 82 1014.2
20260902023956 20 81 0.0 0.0 0.00 0.00 0.00 82 1014.2
20260902023902 20 81 0.0 0.0 0.00 0.00 0.00 82 1014.2
20260902023807 20 81 0.0 0.0 0.00 0.00 0.00 82 1014.1
20260902023732 20 81 0.0 0.0 0.00 0.00 0.00 82 1014.1
20260902023617 20 81 0.0 0.0 0.00 0.00 0.00 82 1014.1
20260902023521 20 81 0.0 0.0 0.00 0.00 0.00 81 1014.1
20260902023424 21 81 0.0 0.0 0.00 0.00 0.00 81 1014.1
20260902023307 21 81 0.0 0.0 0.00 0.00 0.00 81 1014.1
20260902023232 21 81 0.0 0.0 0.00 0.00 0.00 81 1014.1
20260902023116 21 81 0.0 0.0 0.00 0.00 0.00 81 1014.2
20260902023021 21 81 0.0 0.0 0.00 0.00 0.00 81 1014.2
20260902022859 21 81 0.0 0.0 0.00 0.00 0.00 81 1014.3
20260902022823 21 81 0.0 0.0 0.00 0.00 0.00 81 1014.2
20260902022711 21 81 0.0 0.0 0.00 0.00 0.00 81 1014.2
20260902022555 21 81 0.0 0.0 0.00 0.00 0.00 81 1014.1
20260902022521 21 81 0.0 0.0 0.00 0.00 0.00 81 1014.1
20260902022425 21 81 0.0 0.0 0.00 0.00 0.00 81 1014.2
20260902022308 21 81 0.0 0.0 0.00 0.00 0.00 81 1014.2
20260902022213 21 81 0.0 0.0 0.00 0.00 0.00 81 1014.2
20260902022102 21 81 0.0 0.0 0.00 0.00 0.00 81 1014.3
20260902022028 21 81 0.0 0.0 0.00 0.00 0.00 81 1014.3
20260902021911 21 81 0.0 0.0 0.00 0.00 0.00 81 1014.3
20260902021817 21 81 0.0 0.0 0.00 0.00 0.00 81 1014.3
20260902021655 21 81 0.0 0.0 0.00 0.00 0.00 81 1014.5
20260902021621 21 81 0.0 0.0 0.00 0.00 0.00 81 1014.5
20260902021459 21 81 0.0 0.0 0.00 0.00 0.00 80 1014.4
20260902021428 21 81 0.0 0.0 0.00 0.00 0.00 80 1014.4
20260902021332 21 81 0.0 0.0 0.00 0.00 0.00 80 1014.4
20260902021156 21 81 0.0 0.0 0.00 0.00 0.00 80 1014.4
20260902021120 21 81 0.0 0.0 0.00 0.00 0.00 80 1014.4
20260902021004 21 81 0.0 0.0 0.00 0.00 0.00 80 1014.3
20260902020909 21 81 0.0 0.0 0.00 0.00 0.00 80 1014.3
20260902020813 21 81 0.0 0.0 0.00 0.00 0.00 80 1014.3
20260902020702 21 81 0.0 1.6 0.00 0.00 0.00 80 1014.3
20260902020628 21 81 0.0 1.6 0.00 0.00 0.00 80 1014.3
20260902020511 21 81 0.0 1.6 0.00 0.00 0.00 80 1014.3
20260902020417 21 81 0.0 3.2 0.00 0.00 0.00 80 1014.3
20260902020255 21 81 0.0 3.2 0.00 0.00 0.00 80 1014.3
20260902020221 21 81 0.0 3.2 0.00 0.00 0.00 80 1014.3
20260902020059 21 81 0.0 3.2 0.00 0.00 0.00 79 1014.4
20260902020008 21 81 0.0 3.2 0.00 0.00 0.00 79 1014.4
20260902015912 21 81 0.0 3.2 0.00 0.00 0.00 79 1014.4
20260902015819 21 81 1.6 3.2 0.00 0.00 0.00 79 1014.3
20260902015656 22 81 1.6 3.2 0.00 0.00 0.00 78 1014.3
20260902015600 22 81 1.6 3.2 0.00 0.00 0.00 78 1014.3
20260902015504 22 81 1.6 3.2 0.00 0.00 0.00 78 1014.3
20260902015428 22 81 1.6 3.2 0.00 0.00 0.00 78 1014.2
20260902015317 22 81 1.6 3.2 0.00 0.00 0.00 79 1014.2
20260902015155 22 81 1.6 3.2 0.00 0.00 0.00 79 1014.2
20260902015121 22 82 1.6 3.2 0.00 0.00 0.00 79 1014.2
20260902014959 22 81 0.0 3.2 0.00 0.00 0.00 79 1014.1
20260902014904 22 81 0.0 1.6 0.00 0.00 0.00 79 1014.1
20260902014809 22 82 0.0 1.6 0.00 0.00 0.00 78 1014.1
20260902014718 22 81 0.0 1.6 0.00 0.00 0.00 78 1014.1
20260902014602 22 81 0.0 1.6 0.00 0.00 0.00 78 1014.0
20260902014507 22 81 0.0 1.6 0.00 0.00 0.00 78 1013.9
20260902014411 22 81 0.0 1.6 0.00 0.00 0.00 78 1013.9
20260902014316 22 81 0.0 1.6 0.00 0.00 0.00 78 1014.0
20260902014200 22 81 0.0 1.6 0.00 0.00 0.00 77 1014.0
20260902014108 22 81 1.6 1.6 0.00 0.00 0.00 76 1014.0
20260902014013 22 81 1.6 1.6 0.00 0.00 0.00 76 1014.0
20260902013917 22 81 1.6 1.6 0.00 0.00 0.00 75 1014.0
20260902013755 22 82 1.6 1.6 0.00 0.00 0.00 76 1014.0
20260902013659 22 82 0.0 1.6 0.00 0.00 0.00 76 1013.9
20260902013624 22 82 0.0 0.0 0.00 0.00 0.00 75 1014.0
20260902013508 22 81 0.0 0.0 0.00 0.00 0.00 75 1014.0
20260902013356 22 82 0.0 0.0 0.00 0.00 0.00 74 1014.0
20260902013301 22 81 0.0 0.0 0.00 0.00 0.00 74 1014.0
20260902013206 22 81 0.0 0.0 0.00 0.00 0.00 74 1014.0
20260902013111 22 81 0.0 0.0 0.00 0.00 0.00 74 1014.0
20260902013016 22 81 0.0 0.0 0.00 0.00 0.00 74 1014.0
20260902012919 22 81 0.0 0.0 0.00 0.00 0.00 75 1013.9
20260902012807 22 82 0.0 0.0 0.00 0.00 0.00 74 1014.0
20260902012732 22 81 0.0 0.0 0.00 0.00 0.00 74 1014.0
20260902012556 22 82 0.0 0.0 0.00 0.00 0.00 75 1013.9
20260902012501 22 81 0.0 0.0 0.00 0.00 0.00 75 1014.0
20260902012406 22 82 0.0 0.0 0.00 0.00 0.00 75 1014.0
20260902012310 22 81 0.0 0.0 0.00 0.00 0.00 74 1014.0
20260902012159 22 82 0.0 0.0 0.00 0.00 0.00 74 1013.9
20260902012104 22 82 0.0 0.0 0.00 0.00 0.00 74 1013.9
20260902012008 22 82 0.0 0.0 0.00 0.00 0.00 75 1013.9
20260902011912 23 82 0.0 0.0 0.00 0.00 0.00 75 1013.8
20260902011837 23 82 0.0 0.0 0.00 0.00 0.00 75 1013.8
20260902011654 23 82 0.0 0.0 0.00 0.00 0.00 75 1013.7
20260902011620 23 82 0.0 0.0 0.00 0.00 0.00 75 1013.7
20260902011508 23 82 0.0 0.0 0.00 0.00 0.00 74 1013.7
20260902011413 23 81 0.0 0.0 0.00 0.00 0.00 74 1013.7
20260902011257 23 82 0.0 0.0 0.00 0.00 0.00 74 1013.7
20260902011222 23 82 0.0 0.0 0.00 0.00 0.00 73 1013.7
20260902011059 23 82 0.0 0.0 0.00 0.00 0.00 72 1013.7
20260902011003 23 82 0.0 0.0 0.00 0.00 0.00 72 1013.6
20260902010912 23 82 0.0 1.6 0.00 0.00 0.00 72 1013.6
20260902010757 23 81 0.0 3.2 0.00 0.00 0.00 73 1013.6
20260902010721 23 82 0.0 3.2 0.00 0.00 0.00 73 1013.6
20260902010559 23 82 0.0 3.2 0.00 0.00 0.00 73 1013.5
20260902010503 23 82 0.0 3.2 0.00 0.00 0.00 72 1013.5
20260902010407 23 82 0.0 3.2 0.00 0.00 0.00 72 1013.5
20260902010255 23 81 0.0 3.2 0.00 0.00 0.00 72 1013.5
20260902010159 23 82 0.0 3.2 0.00 0.00 0.00 72 1013.5
20260902010104 23 82 1.6 3.2 0.00 0.00 0.00 72 1013.5
20260902010008 23 82 1.6 3.2 0.00 0.00 0.00 72 1013.5
20260902005913 23 82 1.6 3.2 0.00 0.00 0.00 72 1013.5
20260902005819 23 82 1.6 3.2 0.00 0.00 0.00 71 1013.6
20260902005702 23 82 0.0 1.6 0.00 0.00 0.00 72 1013.6
20260902005611 23 82 0.0 0.0 0.00 0.00 0.00 72 1013.6
20260902005517 23 82 0.0 0.0 0.00 0.00 0.00 71 1013.7
20260902005355 23 82 0.0 0.0 0.00 0.00 0.00 71 1013.7
20260902005300 23 81 0.0 0.0 0.00 0.00 0.00 70 1013.7
20260902005203 24 82 0.0 0.0 0.00 0.00 0.00 70 1013.7
20260902005109 24 81 0.0 0.0 0.00 0.00 0.00 70 1013.7
20260902005018 24 82 0.0 0.0 0.00 0.00 0.00 69 1013.7
20260902004921 24 82 0.0 1.6 0.00 0.00 0.00 69 1013.7
20260902004805 24 81 0.0 1.6 0.00 0.00 0.00 69 1013.7
20260902004729 24 82 0.0 1.6 0.00 0.00 0.00 69 1013.7
20260902004633 24 82 0.0 1.6 0.00 0.00 0.00 69 1013.7
20260902004517 24 82 0.0 1.6 0.00 0.00 0.00 69 1013.8
20260902004401 24 82 0.0 1.6 0.00 0.00 0.00 69 1013.8
20260902004306 24 82 0.0 4.8 0.00 0.00 0.00 68 1013.8
20260902004214 25 82 0.0 4.8 0.00 0.00 0.00 68 1013.8
20260902004118 25 82 0.0 4.8 0.00 0.00 0.00 69 1013.8
20260902003956 25 82 0.0 4.8 0.00 0.00 0.00 68 1013.8
20260902003921 25 82 0.0 4.8 0.00 0.00 0.00 68 1013.9
20260902003825 25 82 0.0 4.8 0.00 0.00 0.00 68 1013.9
20260902003708 25 82 1.6 4.8 0.00 0.00 0.00 68 1013.9
20260902003613 25 82 1.6 4.8 0.00 0.00 0.00 69 1013.9
20260902003501 25 82 1.6 4.8 0.00 0.00 0.00 67 1013.8
20260902003405 25 82 1.6 4.8 0.00 0.00 0.00 66 1013.7
20260902003311 25 82 0.0 4.8 0.00 0.00 0.00 66 1013.7
20260902003155 25 82 1.6 4.8 0.00 0.00 0.00 66 1013.7
20260902003100 25 82 1.6 4.8 0.00 0.00 0.00 66 1013.7
20260902003006 25 82 3.2 4.8 0.00 0.00 0.00 66 1013.7
20260902002914 25 82 3.2 4.8 0.00 0.00 0.00 66 1013.7
20260902002819 25 82 3.2 4.8 0.00 0.00 0.00 66 1013.7
20260902002657 25 81 3.2 4.8 0.00 0.00 0.00 65 1013.7
20260902002601 25 81 3.2 4.8 0.00 0.00 0.00 65 1013.8
20260902002526 25 81 4.8 4.8 0.00 0.00 0.00 64 1013.8
20260902002410 25 81 4.8 4.8 0.00 0.00 0.00 64 1013.8
20260902002300 25 81 4.8 4.8 0.00 0.00 0.00 64 1013.8
20260902002225 25 80 4.8 4.8 0.00 0.00 0.00 63 1013.8
20260902002108 25 72 3.2 4.8 0.00 0.00 0.00 62 1013.8
20260902002033 26 72 3.2 4.8 0.00 0.00 0.00 62 1013.8
20260902001917 26 72 3.2 4.8 0.00 0.00 0.00 61 1013.8
20260902001754 26 38 1.6 3.2 0.00 0.00 0.00 61 1013.8
20260902001700 26 38 1.6 3.2 0.00 0.00 0.00 59 1013.9
20260902001609 26 38 1.6 3.2 0.00 0.00 0.00 60 1013.9
20260902001513 26 38 1.6 3.2 0.00 0.00 0.00 60 1013.9
20260902001358 26 38 1.6 3.2 0.00 0.00 0.00 62 1013.9
20260902001302 26 38 1.6 3.2 0.00 0.00 0.00 62 1014.0
20260902001208 26 38 1.6 3.2 0.00 0.00 0.00 63 1014.0
20260902001112 26 38 1.6 3.2 0.00 0.00 0.00 61 1014.0
20260902001000 26 38 1.6 3.2 0.00 0.00 0.00 62 1013.9
20260902000905 26 38 1.6 3.2 0.00 0.00 0.00 63 1013.9
20260902000831 26 38 3.2 3.2 0.00 0.00 0.00 62 1013.9
20260902000734 26 38 3.2 4.8 0.00 0.00 0.00 61 1014.0
20260902000557 26 38 3.2 4.8 0.00 0.00 0.00 61 1013.9
20260902000503 26 38 3.2 4.8 0.00 0.00 0.00 61 1014.0
20260902000429 26 38 1.6 4.8 0.00 0.00 0.00 61 1013.9
20260902000312 26 38 1.6 4.8 0.00 0.00 0.00 61 1013.9
20260902000219 27 38 1.6 6.4 0.00 0.00 0.00 60 1013.9
20260902000055 26 38 1.6 6.4 0.00 0.00 0.00 57 1013.8
20260902000000 27 38 3.2 6.4 0.00 0.00 0.00 55 1013.9
20260901235904 27 38 3.2 6.4 0.00 0.00 0.00 55 1013.9
20260901235809 27 39 3.2 6.4 0.00 0.00 0.00 55 1013.9
20260901235657 27 38 3.2 6.4 0.00 0.00 0.00 56 1013.9
20260901235602 27 38 3.2 6.4 0.00 0.00 0.00 56 1014.0
20260901235528 27 39 3.2 6.4 0.00 0.00 0.00 56 1014.0
20260901235431 27 38 4.8 6.4 0.00 0.00 0.00 57 1014.0
20260901235334 27 39 3.2 6.4 0.00 0.00 0.00 57 1014.0
20260901235217 27 34 3.2 8.0 0.00 0.00 0.00 56 1014.0
20260901235101 27 34 4.8 8.0 0.00 0.00 0.00 56 1014.0
20260901235006 27 20 3.2 8.0 0.00 0.00 0.00 56 1014.0
20260901234854 27 13 3.2 8.0 0.00 0.00 0.00 58 1014.0
20260901234759 27 10 3.2 8.0 0.00 0.00 0.00 59 1014.0
20260901234704 27 9 3.2 8.0 0.00 0.00 0.00 58 1014.0
20260901234608 27 5 3.2 8.0 0.00 0.00 0.00 59 1014.0
20260901234514 27 5 4.8 8.0 0.00 0.00 0.00 58 1014.0
20260901234402 27 9 4.8 8.0 0.00 0.00 0.00 58 1014.0
20260901234328 27 360 4.8 6.4 0.00 0.00 0.00 59 1014.0
20260901234211 27 355 4.8 6.4 0.00 0.00 0.00 59 1014.0
20260901234055 27 9 4.8 8.0 0.00 0.00 0.00 59 1014.0
20260901233959 27 5 4.8 8.0 0.00 0.00 0.00 59 1014.0
20260901233905 27 9 4.8 8.0 0.00 0.00 0.00 59 1014.0
20260901233829 27 9 4.8 8.0 0.00 0.00 0.00 59 1014.0
20260901233657 27 9 4.8 8.0 0.00 0.00 0.00 59 1014.0
20260901233600 27 9 4.8 8.0 0.00 0.00 0.00 59 1013.9
20260901233505 27 13 4.8 8.0 0.00 0.00 0.00 59 1014.0
20260901233410 27 14 4.8 8.0 0.00 0.00 0.00 58 1014.0
20260901233315 27 329 4.8 8.0 0.00 0.00 0.00 59 1013.9
20260901233239 27 342 4.8 8.0 0.00 0.00 0.00 58 1013.9
20260901233057 27 360 4.8 8.0 0.00 0.00 0.00 57 1014.0
20260901233025 27 341 4.8 9.7 0.00 0.00 0.00 57 1014.0
20260901232908 27 11 4.8 9.7 0.00 0.00 0.00 57 1014.0
20260901232814 27 360 4.8 9.7 0.00 0.00 0.00 56 1014.1
20260901232659 27 5 4.8 9.7 0.00 0.00 0.00 56 1014.0
20260901232604 28 360 6.4 9.7 0.00 0.00 0.00 56 1014.0
20260901232529 28 360 4.8 9.7 0.00 0.00 0.00 57 1013.9
20260901232431 28 355 4.8 9.7 0.00 0.00 0.00 58 1013.9
20260901232259 28 348 4.8 9.7 0.00 0.00 0.00 58 1014.0
20260901232224 28 9 4.8 6.4 0.00 0.00 0.00 57 1013.9
20260901232108 28 9 4.8 6.4 0.00 0.00 0.00 56 1013.9
20260901232012 28 12 4.8 6.4 0.00 0.00 0.00 55 1014.0
20260901231858 28 17 3.2 6.4 0.00 0.00 0.00 55 1013.9
20260901231822 28 18 4.8 6.4 0.00 0.00 0.00 55 1013.9
20260901231706 28 5 4.8 6.4 0.00 0.00 0.00 55 1013.9
20260901231555 28 5 3.2 8.0 0.00 0.00 0.00 55 1013.9
20260901231500 28 32 3.2 8.0 0.00 0.00 0.00 54 1013.9
20260901231405 28 31 3.2 9.7 0.00 0.00 0.00 55 1013.9
20260901231329 28 40 3.2 9.7 0.00 0.00 0.00 55 1013.9
20260901231213 28 16 3.2 9.7 0.00 0.00 0.00 54 1013.9
20260901231117 28 28 3.2 9.7 0.00 0.00 0.00 54 1013.8
20260901231005 28 32 3.2 9.7 0.00 0.00 0.00 54 1013.9
20260901230910 28 34 4.8 14.5 0.00 0.00 0.00 52 1013.9
20260901230814 28 26 4.8 14.5 0.00 0.00 0.00 52 1013.8
20260901230718 28 62 4.8 14.5 0.00 0.00 0.00 53 1013.9
20260901230556 28 40 4.8 14.5 0.00 0.00 0.00 52 1013.9
20260901230502 28 5 4.8 14.5 0.00 0.00 0.00 53 1013.9
20260901230411 28 42 4.8 14.5 0.00 0.00 0.00 52 1013.9
20260901230256 28 40 4.8 14.5 0.00 0.00 0.00 53 1013.9
20260901230200 28 5 6.4 14.5 0.00 0.00 0.00 53 1014.0
20260901230125 28 20 8.0 14.5 0.00 0.00 0.00 52 1014.0
20260901230009 28 41 6.4 14.5 0.00 0.00 0.00 54 1014.0
20260901225913 28 360 4.8 9.7 0.00 0.00 0.00 54 1014.0
20260901225818 28 24 4.8 9.7 0.00 0.00 0.00 54 1014.0
20260901225706 28 31 4.8 9.7 0.00 0.00 0.00 53 1014.0
20260901225630 28 11 4.8 9.7 0.00 0.00 0.00 53 1014.0
20260901225513 28 360 4.8 9.7 0.00 0.00 0.00 53 1014.0
20260901225418 28 336 3.2 6.4 0.00 0.00 0.00 54 1014.0
20260901225256 28 40 3.2 6.4 0.00 0.00 0.00 53 1013.9
20260901225200 28 40 3.2 12.9 0.00 0.00 0.00 52 1013.9
20260901225109 28 43 3.2 12.9 0.00 0.00 0.00 53 1013.9
20260901225013 28 43 3.2 12.9 0.00 0.00 0.00 53 1013.9
20260901224937 28 44 3.2 12.9 0.00 0.00 0.00 52 1013.8
20260901224754 28 44 3.2 12.9 0.00 0.00 0.00 52 1013.8
20260901224700 28 44 3.2 12.9 0.00 0.00 0.00 52 1013.8
20260901224605 28 44 3.2 12.9 0.00 0.00 0.00 52 1013.9
20260901224509 28 45 4.8 12.9 0.00 0.00 0.00 52 1013.9
20260901224419 28 11 4.8 12.9 0.00 0.00 0.00 53 1013.9
20260901224256 28 336 4.8 8.0 0.00 0.00 0.00 53 1013.8
20260901224222 28 36 4.8 8.0 0.00 0.00 0.00 54 1013.9
20260901224126 28 22 4.8 8.0 0.00 0.00 0.00 53 1013.8
20260901224009 28 43 3.2 8.0 0.00 0.00 0.00 53 1013.8
20260901223913 28 41 3.2 8.0 0.00 0.00 0.00 53 1013.8
20260901223818 28 27 3.2 8.0 0.00 0.00 0.00 53 1013.8
20260901223706 28 355 4.8 8.0 0.00 0.00 0.00 53 1013.8
20260901223610 28 25 4.8 8.0 0.00 0.00 0.00 53 1013.8
20260901223455 28 59 3.2 8.0 0.00 0.00 0.00 53 1013.8
20260901223359 28 15 3.2 8.0 0.00 0.00 0.00 52 1013.8
20260901223304 28 360 3.2 8.0 0.00 0.00 0.00 53 1013.8
20260901223210 28 22 3.2 8.0 0.00 0.00 0.00 53 1013.8
20260901223119 28 28 3.2 8.0 0.00 0.00 0.00 52 1013.8
20260901222956 28 13 3.2 8.0 0.00 0.00 0.00 53 1013.8
20260901222921 28 5 3.2 8.0 0.00 0.00 0.00 52 1013.8
20260901222758 28 5 4.8 8.0 0.00 0.00 0.00 52 1013.8
20260901222702 28 19 4.8 8.0 0.00 0.00 0.00 53 1013.7
20260901222608 28 25 3.2 8.0 0.00 0.00 0.00 53 1013.7
20260901222456 28 5 3.2 8.0 0.00 0.00 0.00 53 1013.8
20260901222400 28 5 4.8 8.0 0.00 0.00 0.00 53 1013.8
20260901222306 28 360 4.8 8.0 0.00 0.00 0.00 53 1013.8
20260901222208 28 360 4.8 8.0 0.00 0.00 0.00 52 1013.8
20260901222113 28 11 4.8 8.0 0.00 0.00 0.00 53 1013.8
20260901221957 28 9 4.8 8.0 0.00 0.00 0.00 54 1013.8
20260901221906 28 355 6.4 8.0 0.00 0.00 0.00 53 1013.8
20260901221810 28 355 6.4 8.0 0.00 0.00 0.00 54 1013.8
20260901221716 28 9 4.8 8.0 0.00 0.00 0.00 55 1013.8
20260901221640 28 340 4.8 8.0 0.00 0.00 0.00 54 1013.8
20260901221456 28 360 4.8 8.0 0.00 0.00 0.00 54 1013.8
20260901221400 28 341 4.8 8.0 0.00 0.00 0.00 53 1013.8
20260901221305 28 360 4.8 9.7 0.00 0.00 0.00 52 1013.8
20260901221213 28 340 4.8 9.7 0.00 0.00 0.00 51 1013.8
20260901221059 28 355 6.4 9.7 0.00 0.00 0.00 52 1013.8
20260901221004 28 360 6.4 12.9 0.00 0.00 0.00 52 1013.9
20260901220908 28 360 6.4 12.9 0.00 0.00 0.00 52 1013.9
20260901220834 28 360 6.4 12.9 0.00 0.00 0.00 52 1013.9
20260901220658 28 355 6.4 12.9 0.00 0.00 0.00 52 1013.9
20260901220627 28 9 6.4 12.9 0.00 0.00 0.00 52 1013.9
20260901220510 29 342 6.4 12.9 0.00 0.00 0.00 52 1013.9
20260901220356 29 360 8.0 12.9 0.00 0.00 0.00 52 1013.9
20260901220300 29 355 8.0 12.9 0.00 0.00 0.00 51 1013.9
20260901220205 29 5 8.0 12.9 0.00 0.00 0.00 51 1013.9
20260901220130 29 360 8.0 12.9 0.00 0.00 0.00 51 1013.9
20260901215957 29 360 8.0 12.9 0.00 0.00 0.00 53 1013.8
20260901215902 29 355 8.0 12.9 0.00 0.00 0.00 52 1013.8
20260901215806 29 360 8.0 12.9 0.00 0.00 0.00 51 1013.8
20260901215711 29 344 8.0 12.9 0.00 0.00 0.00 52 1013.8
20260901215555 29 360 8.0 12.9 0.00 0.00 0.00 54 1013.8
20260901215501 29 341 6.4 12.9 0.00 0.00 0.00 54 1013.8
20260901215409 29 338 6.4 12.9 0.00 0.00 0.00 52 1013.8
20260901215313 29 355 6.4 12.9 0.00 0.00 0.00 52 1013.7
20260901215216 29 360 4.8 12.9 0.00 0.00 0.00 51 1013.7
20260901215100 29 343 4.8 12.9 0.00 0.00 0.00 51 1013.7
20260901215005 29 24 4.8 12.9 0.00 0.00 0.00 49 1013.7
20260901214909 29 30 4.8 12.9 0.00 0.00 0.00 49 1013.7
20260901214834 29 32 6.4 12.9 0.00 0.00 0.00 49 1013.7
20260901214701 29 22 4.8 12.9 0.00 0.00 0.00 50 1013.7
20260901214607 29 16 4.8 12.9 0.00 0.00 0.00 50 1013.7
20260901214532 29 5 4.8 8.0 0.00 0.00 0.00 53 1013.7
20260901214356 29 360 4.8 8.0 0.00 0.00 0.00 53 1013.6
20260901214320 29 15 4.8 6.4 0.00 0.00 0.00 52 1013.6
20260901214158 29 11 4.8 6.4 0.00 0.00 0.00 49 1013.6
20260901214107 29 11 3.2 6.4 0.00 0.00 0.00 51 1013.5
20260901214011 29 360 3.2 9.7 0.00 0.00 0.00 52 1013.5
20260901213856 29 360 4.8 9.7 0.00 0.00 0.00 50 1013.5
20260901213802 30 360 4.8 9.7 0.00 0.00 0.00 51 1013.5
20260901213707 30 360 4.8 9.7 0.00 0.00 0.00 51 1013.6
20260901213611 30 360 4.8 9.7 0.00 0.00 0.00 51 1013.6
20260901213521 30 355 4.8 9.7 0.00 0.00 0.00 50 1013.6
20260901213358 30 355 4.8 9.7 0.00 0.00 0.00 48 1013.6
20260901213302 30 360 6.4 9.7 0.00 0.00 0.00 50 1013.6
20260901213207 30 339 6.4 9.7 0.00 0.00 0.00 52 1013.6
20260901213111 30 333 4.8 9.7 0.00 0.00 0.00 49 1013.6
20260901212955 30 5 3.2 9.7 0.00 0.00 0.00 49 1013.6
20260901212920 30 14 3.2 9.7 0.00 0.00 0.00 48 1013.6
20260901212828 30 12 4.8 12.9 0.00 0.00 0.00 48 1013.6
20260901212711 30 5 4.8 12.9 0.00 0.00 0.00 47 1013.6
20260901212555 30 24 4.8 12.9 0.00 0.00 0.00 47 1013.6
20260901212521 30 360 6.4 12.9 0.00 0.00 0.00 47 1013.7
20260901212424 30 35 6.4 12.9 0.00 0.00 0.00 48 1013.6
20260901212328 30 360 6.4 12.9 0.00 0.00 0.00 47 1013.6
20260901212232 30 360 8.0 12.9 0.00 0.00 0.00 47 1013.6
20260901212055 30 360 8.0 12.9 0.00 0.00 0.00 46 1013.5
20260901212003 30 350 8.0 12.9 0.00 0.00 0.00 47 1013.5
20260901211908 30 339 6.4 12.9 0.00 0.00 0.00 48 1013.5
20260901211812 30 5 4.8 12.9 0.00 0.00 0.00 45 1013.6
20260901211656 30 33 3.2 12.9 0.00 0.00 0.00 47 1013.5
20260901211601 30 18 3.2 12.9 0.00 0.00 0.00 47 1013.5
20260901211506 30 19 3.2 12.9 0.00 0.00 0.00 48 1013.4
20260901211354 30 41 3.2 12.9 0.00 0.00 0.00 46 1013.5
20260901211259 30 42 6.4 12.9 0.00 0.00 0.00 46 1013.4
20260901211202 30 43 8.0 12.9 0.00 0.00 0.00 45 1013.5
20260901211128 30 42 8.0 12.9 0.00 0.00 0.00 43 1013.5
20260901211011 30 46 8.0 12.9 0.00 0.00 0.00 44 1013.4
20260901210918 30 41 8.0 12.9 0.00 0.00 0.00 46 1013.5
20260901210755 30 59 3.2 12.9 0.00 0.00 0.00 44 1013.6
20260901210725 31 30 4.8 12.9 0.00 0.00 0.00 50 1013.5
20260901210628 31 329 4.8 12.9 0.00 0.00 0.00 48 1013.6
20260901210511 31 331 4.8 12.9 0.00 0.00 0.00 48 1013.6
20260901210435 31 355 6.4 12.9 0.00 0.00 0.00 46 1013.6
20260901210319 31 336 8.0 12.9 0.00 0.00 0.00 49 1013.7
20260901210202 31 323 4.8 9.7 0.00 0.00 0.00 49 1013.6
20260901210128 31 336 3.2 8.0 0.00 0.00 0.00 46 1013.6
20260901210011 31 5 3.2 9.7 0.00 0.00 0.00 47 1013.7
20260901205900 31 5 3.2 9.7 0.00 0.00 0.00 49 1013.7
20260901205804 31 41 3.2 9.7 0.00 0.00 0.00 46 1013.8
20260901205708 31 37 3.2 12.9 0.00 0.00 0.00 45 1013.8
20260901205633 31 37 3.2 12.9 0.00 0.00 0.00 45 1013.7
20260901205538 31 45 3.2 12.9 0.00 0.00 0.00 47 1013.8
20260901205441 31 46 3.2 12.9 0.00 0.00 0.00 46 1013.7
20260901205257 31 52 6.4 12.9 0.00 0.00 0.00 45 1013.8
20260901205223 31 40 6.4 12.9 0.00 0.00 0.00 45 1013.9
20260901205110 31 28 6.4 12.9 0.00 0.00 0.00 45 1013.9
20260901205014 31 36 4.8 12.9 0.00 0.00 0.00 43 1013.8
20260901204918 31 53 4.8 12.9 0.00 0.00 0.00 44 1014.0
20260901204802 31 360 6.4 12.9 0.00 0.00 0.00 45 1013.9
20260901204707 31 331 6.4 12.9 0.00 0.00 0.00 45 1013.9
20260901204611 31 360 4.8 12.9 0.00 0.00 0.00 45 1014.0
20260901204500 31 34 4.8 16.1 0.00 0.00 0.00 44 1014.0
20260901204406 31 37 4.8 16.1 0.00 0.00 0.00 45 1014.0
20260901204331 31 12 4.8 16.1 0.00 0.00 0.00 46 1014.0
20260901204235 31 15 6.4 16.1 0.00 0.00 0.00 47 1014.0
20260901204059 31 360 9.7 16.1 0.00 0.00 0.00 46 1014.0
20260901204023 31 338 9.7 16.1 0.00 0.00 0.00 48 1014.0